Observation data for Sweetwater on 01/20/2019      Previous  Date  Next       Current Mesonet Observations  Soil Data  Daily Summary Page  Observations in Plain Language
KSW1 200600Z 11003KT M01/M05 A3032 RMK A01 T10131049  RH  076%=      5-min Rain = 0
KSW1 200601Z 11002KT M01/M05 A3032 RMK A01 T10141048  RH  078%=      5-min Rain = 0
KSW1 200602Z 11002KT M02/M05 A3032 RMK A01 T10161047  RH  079%=      5-min Rain = 0
KSW1 200603Z 12002KT M02/M05 A3033 RMK A01 T10171047  RH  080%=      5-min Rain = 0
KSW1 200604Z 11002KT M02/M05 A3033 RMK A01 T10171047  RH  080%=      5-min Rain = 0
KSW1 200605Z 11003KT M02/M05 A3033 RMK A01 T10181047  RH  080%=      5-min Rain = 0
KSW1 200606Z 10004KT M02/M05 A3033 RMK A01 T10181047  RH  080%=      5-min Rain = 0
KSW1 200607Z 10004KT M02/M05 A3032 RMK A01 T10181048  RH  080%=      5-min Rain = 0
KSW1 200608Z 10005KT M02/M05 A3032 RMK A01 T10181048  RH  080%=      5-min Rain = 0
KSW1 200609Z 10005KT M02/M05 A3032 RMK A01 T10181048  RH  080%=      5-min Rain = 0
KSW1 200610Z 10005KT M02/M05 A3032 RMK A01 T10181047  RH  081%=      5-min Rain = 0
KSW1 200611Z 10005KT M02/M05 A3032 RMK A01 T10181047  RH  081%=      5-min Rain = 0
KSW1 200612Z 10005KT M02/M05 A3032 RMK A01 T10171047  RH  080%=      5-min Rain = 0
KSW1 200613Z 10006KT M02/M05 A3032 RMK A01 T10161047  RH  080%=      5-min Rain = 0
KSW1 200614Z 10005KT M02/M05 A3032 RMK A01 T10161047  RH  080%=      5-min Rain = 0
KSW1 200615Z 10006KT M02/M05 A3032 RMK A01 T10161047  RH  080%=      5-min Rain = 0
KSW1 200616Z 10006KT M02/M05 A3032 RMK A01 T10171047  RH  080%=      5-min Rain = 0
KSW1 200617Z 10006KT M02/M05 A3032 RMK A01 T10171047  RH  080%=      5-min Rain = 0
KSW1 200618Z 10005KT M02/M05 A3032 RMK A01 T10191048  RH  081%=      5-min Rain = 0
KSW1 200619Z 10005KT M02/M05 A3032 RMK A01 T10191048  RH  081%=      5-min Rain = 0
KSW1 200620Z 11004KT M02/M05 A3033 RMK A01 T10201048  RH  081%=      5-min Rain = 0
KSW1 200621Z 12004KT M02/M05 A3033 RMK A01 T10201048  RH  081%=      5-min Rain = 0
KSW1 200622Z 13003KT M02/M05 A3033 RMK A01 T10201048  RH  081%=      5-min Rain = 0
KSW1 200623Z 13003KT M02/M05 A3033 RMK A01 T10201048  RH  081%=      5-min Rain = 0
KSW1 200624Z 14003KT M02/M05 A3032 RMK A01 T10201048  RH  081%=      5-min Rain = 0
KSW1 200625Z 14003KT M02/M05 A3032 RMK A01 T10201048  RH  081%=      5-min Rain = 0
KSW1 200626Z 14004KT M02/M05 A3032 RMK A01 T10201048  RH  081%=      5-min Rain = 0
KSW1 200627Z 13003KT M02/M05 A3032 RMK A01 T10201049  RH  081%=      5-min Rain = 0
KSW1 200628Z 13002KT M02/M05 A3032 RMK A01 T10201049  RH  081%=      5-min Rain = 0
KSW1 200629Z 13001KT M02/M05 A3032 RMK A01 T10211048  RH  082%=      5-min Rain = 0
KSW1 200630Z 13001KT M02/M05 A3033 RMK A01 T10211048  RH  082%=      5-min Rain = 0
KSW1 200631Z 13001KT M02/M05 A3033 RMK A01 T10221048  RH  082%=      5-min Rain = 0
KSW1 200632Z 12001KT M02/M05 A3033 RMK A01 T10211048  RH  082%=      5-min Rain = 0
KSW1 200633Z 13001KT M02/M05 A3033 RMK A01 T10221048  RH  082%=      5-min Rain = 0
KSW1 200634Z 15002KT M02/M05 A3033 RMK A01 T10211048  RH  082%=      5-min Rain = 0
KSW1 200635Z 14001KT M02/M05 A3033 RMK A01 T10211048  RH  082%=      5-min Rain = 0
KSW1 200636Z 14002KT M02/M05 A3033 RMK A01 T10211049  RH  082%=      5-min Rain = 0
KSW1 200637Z 12001KT M02/M05 A3033 RMK A01 T10221050  RH  081%=      5-min Rain = 0
KSW1 200638Z 12001KT M02/M05 A3033 RMK A01 T10211050  RH  081%=      5-min Rain = 0
KSW1 200639Z 13001KT M02/M05 A3034 RMK A01 T10211050  RH  080%=      5-min Rain = 0
KSW1 200640Z 13002KT M02/M05 A3034 RMK A01 T10201050  RH  080%=      5-min Rain = 0
KSW1 200641Z 15002KT M02/M05 A3034 RMK A01 T10191050  RH  080%=      5-min Rain = 0
KSW1 200642Z 15002KT M02/M05 A3034 RMK A01 T10181050  RH  079%=      5-min Rain = 0
KSW1 200643Z 18002KT M02/M05 A3034 RMK A01 T10171051  RH  078%=      5-min Rain = 0
KSW1 200644Z 21002KT M02/M05 A3034 RMK A01 T10161050  RH  077%=      5-min Rain = 0
KSW1 200645Z 16001KT M02/M05 A3034 RMK A01 T10151050  RH  077%=      5-min Rain = 0
KSW1 200646Z 12001KT M02/M05 A3034 RMK A01 T10151050  RH  077%=      5-min Rain = 0
KSW1 200647Z 10001KT M02/M05 A3035 RMK A01 T10151050  RH  078%=      5-min Rain = 0
KSW1 200648Z 09002KT M02/M05 A3035 RMK A01 T10171050  RH  078%=      5-min Rain = 0
KSW1 200649Z 07002KT M02/M05 A3035 RMK A01 T10161050  RH  078%=      5-min Rain = 0
KSW1 200650Z 07002KT M02/M05 A3035 RMK A01 T10161050  RH  077%=      5-min Rain = 0
KSW1 200651Z 07002KT M02/M05 A3035 RMK A01 T10161051  RH  077%=      5-min Rain = 0
KSW1 200652Z 08002KT M02/M05 A3034 RMK A01 T10161051  RH  077%=      5-min Rain = 0
KSW1 200653Z 10002KT M02/M05 A3034 RMK A01 T10161052  RH  077%=      5-min Rain = 0
KSW1 200654Z 12002KT M02/M05 A3034 RMK A01 T10161052  RH  076%=      5-min Rain = 0
KSW1 200655Z 12002KT M02/M05 A3034 RMK A01 T10151052  RH  076%=      5-min Rain = 0
KSW1 200656Z 11002KT M01/M05 A3034 RMK A01 T10141052  RH  075%=      5-min Rain = 0
KSW1 200657Z 14003KT M01/M05 A3034 RMK A01 T10131052  RH  075%=      5-min Rain = 0
KSW1 200658Z 15003KT M01/M05 A3034 RMK A01 T10141052  RH  075%=      5-min Rain = 0
KSW1 200659Z 15004KT M02/M05 A3034 RMK A01 T10171053  RH  077%=      5-min Rain = 0
KSW1 200700Z 15004KT M02/M05 A3034 RMK A01 T10191053  RH  078%=      5-min Rain = 0
KSW1 200701Z 14003KT M02/M05 A3034 RMK A01 T10191052  RH  078%=      5-min Rain = 0
KSW1 200702Z 14003KT M02/M05 A3034 RMK A01 T10191053  RH  078%=      5-min Rain = 0
KSW1 200703Z 14003KT M02/M05 A3034 RMK A01 T10181053  RH  077%=      5-min Rain = 0
KSW1 200704Z 14002KT M02/M05 A3034 RMK A01 T10181053  RH  077%=      5-min Rain = 0
KSW1 200705Z 12003KT M02/M05 A3034 RMK A01 T10181052  RH  078%=      5-min Rain = 0
KSW1 200706Z 12002KT M02/M05 A3034 RMK A01 T10191052  RH  078%=      5-min Rain = 0
KSW1 200707Z 14002KT M02/M05 A3034 RMK A01 T10201052  RH  078%=      5-min Rain = 0
KSW1 200708Z 16003KT M02/M05 A3034 RMK A01 T10201052  RH  079%=      5-min Rain = 0
KSW1 200709Z 16003KT M02/M05 A3034 RMK A01 T10211052  RH  079%=      5-min Rain = 0
KSW1 200710Z 15003KT M02/M05 A3034 RMK A01 T10211052  RH  079%=      5-min Rain = 0
KSW1 200711Z 15002KT M02/M05 A3033 RMK A01 T10211052  RH  079%=      5-min Rain = 0
KSW1 200712Z 14002KT M02/M05 A3033 RMK A01 T10201052  RH  079%=      5-min Rain = 0
KSW1 200713Z 14002KT M02/M05 A3033 RMK A01 T10191052  RH  078%=      5-min Rain = 0
KSW1 200714Z 15002KT M02/M05 A3033 RMK A01 T10191052  RH  078%=      5-min Rain = 0
KSW1 200715Z 16002KT M02/M05 A3033 RMK A01 T10191052  RH  078%=      5-min Rain = 0
KSW1 200716Z 17002KT M02/M05 A3033 RMK A01 T10201052  RH  078%=      5-min Rain = 0
KSW1 200717Z 18002KT M02/M05 A3033 RMK A01 T10211051  RH  079%=      5-min Rain = 0
KSW1 200718Z 19001KT M02/M05 A3034 RMK A01 T10211051  RH  080%=      5-min Rain = 0
KSW1 200719Z 19001KT M02/M05 A3034 RMK A01 T10211051  RH  080%=      5-min Rain = 0
KSW1 200720Z 19001KT M02/M05 A3034 RMK A01 T10221051  RH  080%=      5-min Rain = 0
KSW1 200721Z 19001KT M02/M05 A3034 RMK A01 T10221051  RH  080%=      5-min Rain = 0
KSW1 200722Z 19001KT M02/M05 A3034 RMK A01 T10221052  RH  080%=      5-min Rain = 0
KSW1 200723Z 18001KT M02/M05 A3034 RMK A01 T10211051  RH  080%=      5-min Rain = 0
KSW1 200724Z 17001KT M02/M05 A3034 RMK A01 T10211052  RH  079%=      5-min Rain = 0
KSW1 200725Z 18000KT M02/M05 A3034 RMK A01 T10211052  RH  079%=      5-min Rain = 0
KSW1 200726Z 00000KT M02/M05 A3034 RMK A01 T10211052  RH  079%=      5-min Rain = 0
KSW1 200727Z 00000KT M02/M05 A3034 RMK A01 T10211052  RH  079%=      5-min Rain = 0
KSW1 200728Z 19000KT M02/M05 A3034 RMK A01 T10211052  RH  079%=      5-min Rain = 0
KSW1 200729Z 19000KT M02/M05 A3034 RMK A01 T10211052  RH  079%=      5-min Rain = 0
KSW1 200730Z 19001KT M02/M05 A3034 RMK A01 T10201052  RH  079%=      5-min Rain = 0
KSW1 200731Z 19001KT M02/M05 A3034 RMK A01 T10201052  RH  079%=      5-min Rain = 0
KSW1 200732Z 19001KT M02/M05 A3034 RMK A01 T10201051  RH  079%=      5-min Rain = 0
KSW1 200733Z 19001KT M02/M05 A3035 RMK A01 T10191051  RH  079%=      5-min Rain = 0
KSW1 200734Z 19001KT M02/M05 A3035 RMK A01 T10191051  RH  078%=      5-min Rain = 0
KSW1 200735Z 18001KT M02/M05 A3035 RMK A01 T10191051  RH  078%=      5-min Rain = 0
KSW1 200736Z 16001KT M02/M05 A3034 RMK A01 T10191052  RH  078%=      5-min Rain = 0
KSW1 200737Z 16001KT M02/M05 A3034 RMK A01 T10191052  RH  078%=      5-min Rain = 0
KSW1 200738Z 15001KT M02/M05 A3034 RMK A01 T10191052  RH  078%=      5-min Rain = 0
KSW1 200739Z 13001KT M02/M05 A3034 RMK A01 T10181052  RH  078%=      5-min Rain = 0
KSW1 200740Z 11001KT M02/M05 A3034 RMK A01 T10201053  RH  078%=      5-min Rain = 0
KSW1 200741Z 10002KT M02/M05 A3034 RMK A01 T10221054  RH  079%=      5-min Rain = 0
KSW1 200742Z 10003KT M02/M05 A3034 RMK A01 T10231054  RH  079%=      5-min Rain = 0
KSW1 200743Z 10003KT M02/M05 A3034 RMK A01 T10231054  RH  080%=      5-min Rain = 0
KSW1 200744Z 09003KT M02/M05 A3034 RMK A01 T10241054  RH  080%=      5-min Rain = 0
KSW1 200745Z 09003KT M02/M05 A3034 RMK A01 T10241053  RH  080%=      5-min Rain = 0
KSW1 200746Z 09004KT M03/M05 A3034 RMK A01 T10251053  RH  081%=      5-min Rain = 0
KSW1 200747Z 09005KT M03/M06 A3034 RMK A01 T10261055  RH  080%=      5-min Rain = 0
KSW1 200748Z 09006KT M03/M06 A3034 RMK A01 T10271055  RH  081%=      5-min Rain = 0
KSW1 200749Z 09005KT M03/M06 A3033 RMK A01 T10281055  RH  082%=      5-min Rain = 0
KSW1 200750Z 09005KT M03/M06 A3033 RMK A01 T10291055  RH  082%=      5-min Rain = 0
KSW1 200751Z 10005KT M03/M05 A3033 RMK A01 T10291054  RH  082%=      5-min Rain = 0
KSW1 200752Z 10005KT M03/M06 A3033 RMK A01 T10281056  RH  081%=      5-min Rain = 0
KSW1 200753Z 10006KT M03/M06 A3033 RMK A01 T10271057  RH  080%=      5-min Rain = 0
KSW1 200754Z 10006KT M03/M06 A3033 RMK A01 T10261058  RH  078%=      5-min Rain = 0
KSW1 200755Z 10007KT M03/M06 A3033 RMK A01 T10251059  RH  078%=      5-min Rain = 0
KSW1 200756Z 11006KT M03/M06 A3033 RMK A01 T10251059  RH  078%=      5-min Rain = 0
KSW1 200757Z 12006KT M03/M06 A3033 RMK A01 T10261059  RH  078%=      5-min Rain = 0
KSW1 200758Z 12006KT M03/M06 A3033 RMK A01 T10271060  RH  078%=      5-min Rain = 0
KSW1 200759Z 12006KT M03/M06 A3033 RMK A01 T10281060  RH  078%=      5-min Rain = 0
KSW1 200800Z 12006KT M03/M06 A3033 RMK A01 T10281060  RH  079%=      5-min Rain = 0
KSW1 200801Z 12006KT M03/M06 A3033 RMK A01 T10281060  RH  079%=      5-min Rain = 0
KSW1 200802Z 12007KT M03/M06 A3033 RMK A01 T10291060  RH  079%=      5-min Rain = 0
KSW1 200803Z 12007KT M03/M06 A3033 RMK A01 T10301060  RH  080%=      5-min Rain = 0
KSW1 200804Z 12007KT M03/M06 A3033 RMK A01 T10311060  RH  080%=      5-min Rain = 0
KSW1 200805Z 12007KT M03/M06 A3033 RMK A01 T10311060  RH  081%=      5-min Rain = 0
KSW1 200806Z 12007KT M03/M06 A3033 RMK A01 T10321060  RH  081%=      5-min Rain = 0
KSW1 200807Z 12007KT M03/M06 A3033 RMK A01 T10321059  RH  082%=      5-min Rain = 0
KSW1 200808Z 12007KT M03/M06 A3034 RMK A01 T10331059  RH  082%=      5-min Rain = 0
KSW1 200809Z 12006KT M03/M06 A3034 RMK A01 T10321059  RH  082%=      5-min Rain = 0
KSW1 200810Z 12005KT M03/M06 A3034 RMK A01 T10321058  RH  082%=      5-min Rain = 0
KSW1 200811Z 11005KT M03/M06 A3034 RMK A01 T10311058  RH  082%=      5-min Rain = 0
KSW1 200812Z 11004KT M03/M06 A3034 RMK A01 T10311058  RH  082%=      5-min Rain = 0
KSW1 200813Z 11005KT M03/M06 A3034 RMK A01 T10311059  RH  082%=      5-min Rain = 0
KSW1 200814Z 12004KT M03/M06 A3034 RMK A01 T10311058  RH  082%=      5-min Rain = 0
KSW1 200815Z 11005KT M03/M06 A3034 RMK A01 T10311059  RH  081%=      5-min Rain = 0
KSW1 200816Z 11005KT M03/M06 A3034 RMK A01 T10301059  RH  080%=      5-min Rain = 0
KSW1 200817Z 11006KT M03/M06 A3034 RMK A01 T10281059  RH  079%=      5-min Rain = 0
KSW1 200818Z 11006KT M03/M06 A3034 RMK A01 T10271059  RH  079%=      5-min Rain = 0
KSW1 200819Z 11007KT M03/M06 A3034 RMK A01 T10271059  RH  078%=      5-min Rain = 0
KSW1 200820Z 12007KT M03/M06 A3034 RMK A01 T10261059  RH  078%=      5-min Rain = 0
KSW1 200821Z 12007KT M03/M06 A3034 RMK A01 T10251058  RH  078%=      5-min Rain = 0
KSW1 200822Z 12007KT M03/M06 A3034 RMK A01 T10251058  RH  078%=      5-min Rain = 0
KSW1 200823Z 12007KT M03/M06 A3034 RMK A01 T10251059  RH  078%=      5-min Rain = 0
KSW1 200824Z 12006KT M03/M06 A3034 RMK A01 T10261060  RH  078%=      5-min Rain = 0
KSW1 200825Z 12006KT M03/M06 A3034 RMK A01 T10271060  RH  078%=      5-min Rain = 0
KSW1 200826Z 13006KT M03/M06 A3034 RMK A01 T10281059  RH  079%=      5-min Rain = 0
KSW1 200827Z 13007KT M03/M06 A3034 RMK A01 T10291058  RH  080%=      5-min Rain = 0
KSW1 200828Z 12007KT M03/M06 A3033 RMK A01 T10291058  RH  080%=      5-min Rain = 0
KSW1 200829Z 12007KT M03/M06 A3033 RMK A01 T10281057  RH  081%=      5-min Rain = 0
KSW1 200830Z 12007KT M03/M06 A3033 RMK A01 T10271056  RH  080%=      5-min Rain = 0
KSW1 200831Z 12007KT M03/M06 A3033 RMK A01 T10261056  RH  080%=      5-min Rain = 0
KSW1 200832Z 12007KT M03/M06 A3033 RMK A01 T10261055  RH  080%=      5-min Rain = 0
KSW1 200833Z 12007KT M03/M06 A3033 RMK A01 T10261056  RH  080%=      5-min Rain = 0
KSW1 200834Z 13007KT M03/M06 A3033 RMK A01 T10261056  RH  080%=      5-min Rain = 0
KSW1 200835Z 12007KT M03/M06 A3033 RMK A01 T10261056  RH  080%=      5-min Rain = 0
KSW1 200836Z 12007KT M03/M06 A3033 RMK A01 T10271056  RH  080%=      5-min Rain = 0
KSW1 200837Z 13006KT M03/M06 A3033 RMK A01 T10271055  RH  081%=      5-min Rain = 0
KSW1 200838Z 13006KT M03/M06 A3033 RMK A01 T10271055  RH  081%=      5-min Rain = 0
KSW1 200839Z 13006KT M03/M06 A3034 RMK A01 T10271055  RH  081%=      5-min Rain = 0
KSW1 200840Z 13006KT M03/M06 A3034 RMK A01 T10271055  RH  081%=      5-min Rain = 0
KSW1 200841Z 12006KT M03/M06 A3034 RMK A01 T10271055  RH  081%=      5-min Rain = 0
KSW1 200842Z 13005KT M03/M06 A3033 RMK A01 T10271055  RH  081%=      5-min Rain = 0
KSW1 200843Z 13005KT M03/M06 A3033 RMK A01 T10271055  RH  081%=      5-min Rain = 0
KSW1 200844Z 12005KT M03/M06 A3033 RMK A01 T10271055  RH  081%=      5-min Rain = 0
KSW1 200845Z 13005KT M03/M06 A3033 RMK A01 T10271055  RH  081%=      5-min Rain = 0
KSW1 200846Z 12005KT M03/M06 A3033 RMK A01 T10271055  RH  081%=      5-min Rain = 0
KSW1 200847Z 12005KT M03/M06 A3033 RMK A01 T10271055  RH  081%=      5-min Rain = 0
KSW1 200848Z 12005KT M03/M06 A3033 RMK A01 T10271055  RH  081%=      5-min Rain = 0
KSW1 200849Z 12005KT M03/M06 A3033 RMK A01 T10281055  RH  082%=      5-min Rain = 0
KSW1 200850Z 13005KT M03/M06 A3033 RMK A01 T10281055  RH  082%=      5-min Rain = 0
KSW1 200851Z 13005KT M03/M05 A3033 RMK A01 T10281054  RH  082%=      5-min Rain = 0
KSW1 200852Z 13006KT M03/M06 A3033 RMK A01 T10281055  RH  082%=      5-min Rain = 0
KSW1 200853Z 13006KT M03/M06 A3033 RMK A01 T10281055  RH  082%=      5-min Rain = 0
KSW1 200854Z 12006KT M03/M06 A3033 RMK A01 T10291055  RH  082%=      5-min Rain = 0
KSW1 200855Z 12006KT M03/M06 A3033 RMK A01 T10301056  RH  082%=      5-min Rain = 0
KSW1 200856Z 12006KT M03/M06 A3033 RMK A01 T10311056  RH  083%=      5-min Rain = 0
KSW1 200857Z 12006KT M03/M06 A3033 RMK A01 T10321056  RH  084%=      5-min Rain = 0
KSW1 200858Z 12005KT M03/M06 A3033 RMK A01 T10321055  RH  084%=      5-min Rain = 0
KSW1 200859Z 12005KT M03/M06 A3033 RMK A01 T10321055  RH  084%=      5-min Rain = 0
KSW1 200900Z 12005KT M03/M06 A3033 RMK A01 T10321055  RH  084%=      5-min Rain = 0
KSW1 200901Z 12005KT M03/M06 A3033 RMK A01 T10321055  RH  084%=      5-min Rain = 0
KSW1 200902Z 12005KT M03/M06 A3033 RMK A01 T10321055  RH  084%=      5-min Rain = 0
KSW1 200903Z 13006KT M03/M06 A3033 RMK A01 T10321055  RH  084%=      5-min Rain = 0
KSW1 200904Z 13006KT M03/M05 A3033 RMK A01 T10311054  RH  084%=      5-min Rain = 0
KSW1 200905Z 13006KT M03/M05 A3033 RMK A01 T10311054  RH  084%=      5-min Rain = 0
KSW1 200906Z 13006KT M03/M06 A3033 RMK A01 T10301055  RH  083%=      5-min Rain = 0
KSW1 200907Z 12006KT M03/M05 A3033 RMK A01 T10301054  RH  083%=      5-min Rain = 0
KSW1 200908Z 12005KT M03/M06 A3033 RMK A01 T10301055  RH  083%=      5-min Rain = 0
KSW1 200909Z 12005KT M03/M05 A3033 RMK A01 T10311054  RH  084%=      5-min Rain = 0
KSW1 200910Z 12005KT M03/M05 A3033 RMK A01 T10311054  RH  084%=      5-min Rain = 0
KSW1 200911Z 13005KT M03/M06 A3033 RMK A01 T10311055  RH  084%=      5-min Rain = 0
KSW1 200912Z 13005KT M03/M06 A3033 RMK A01 T10311055  RH  084%=      5-min Rain = 0
KSW1 200913Z 13005KT M03/M06 A3033 RMK A01 T10301055  RH  083%=      5-min Rain = 0
KSW1 200914Z 13005KT M03/M06 A3033 RMK A01 T10301055  RH  083%=      5-min Rain = 0
KSW1 200915Z 14004KT M03/M06 A3033 RMK A01 T10301055  RH  083%=      5-min Rain = 0
KSW1 200916Z 14004KT M03/M06 A3033 RMK A01 T10301055  RH  083%=      5-min Rain = 0
KSW1 200917Z 15003KT M03/M05 A3033 RMK A01 T10301054  RH  083%=      5-min Rain = 0
KSW1 200918Z 14003KT M03/M05 A3033 RMK A01 T10311054  RH  084%=      5-min Rain = 0
KSW1 200919Z 13004KT M03/M06 A3033 RMK A01 T10311055  RH  084%=      5-min Rain = 0
KSW1 200920Z 13004KT M03/M06 A3032 RMK A01 T10321055  RH  084%=      5-min Rain = 0
KSW1 200921Z 13003KT M03/M06 A3032 RMK A01 T10311055  RH  084%=      5-min Rain = 0
KSW1 200922Z 13003KT M03/M06 A3032 RMK A01 T10311055  RH  084%=      5-min Rain = 0
KSW1 200923Z 14003KT M03/M06 A3033 RMK A01 T10311055  RH  084%=      5-min Rain = 0
KSW1 200924Z 15003KT M03/M06 A3033 RMK A01 T10311055  RH  084%=      5-min Rain = 0
KSW1 200925Z 15003KT M03/M06 A3033 RMK A01 T10311055  RH  084%=      5-min Rain = 0
KSW1 200926Z 15003KT M03/M06 A3033 RMK A01 T10311055  RH  084%=      5-min Rain = 0
KSW1 200927Z 15003KT M03/M06 A3033 RMK A01 T10311055  RH  084%=      5-min Rain = 0
KSW1 200928Z 16003KT M03/M06 A3033 RMK A01 T10311055  RH  084%=      5-min Rain = 0
KSW1 200929Z 16003KT M03/M06 A3033 RMK A01 T10311055  RH  083%=      5-min Rain = 0
KSW1 200930Z 17003KT M03/M06 A3033 RMK A01 T10301055  RH  083%=      5-min Rain = 0
KSW1 200931Z 16003KT M03/M06 A3033 RMK A01 T10301055  RH  083%=      5-min Rain = 0
KSW1 200932Z 15003KT M03/M06 A3033 RMK A01 T10301055  RH  083%=      5-min Rain = 0
KSW1 200933Z 16004KT M03/M06 A3033 RMK A01 T10291055  RH  082%=      5-min Rain = 0
KSW1 200934Z 16004KT M03/M06 A3033 RMK A01 T10291055  RH  082%=      5-min Rain = 0
KSW1 200935Z 16004KT M03/M06 A3033 RMK A01 T10281055  RH  082%=      5-min Rain = 0
KSW1 200936Z 16004KT M03/M06 A3033 RMK A01 T10281055  RH  081%=      5-min Rain = 0
KSW1 200937Z 15004KT M03/M06 A3033 RMK A01 T10281055  RH  081%=      5-min Rain = 0
KSW1 200938Z 14004KT M03/M06 A3033 RMK A01 T10281056  RH  081%=      5-min Rain = 0
KSW1 200939Z 13004KT M03/M06 A3032 RMK A01 T10281056  RH  081%=      5-min Rain = 0
KSW1 200940Z 11004KT M03/M06 A3032 RMK A01 T10281056  RH  081%=      5-min Rain = 0
KSW1 200941Z 10004KT M03/M06 A3033 RMK A01 T10281056  RH  081%=      5-min Rain = 0
KSW1 200942Z 10003KT M03/M06 A3033 RMK A01 T10291056  RH  082%=      5-min Rain = 0
KSW1 200943Z 11004KT M03/M06 A3033 RMK A01 T10291056  RH  082%=      5-min Rain = 0
KSW1 200944Z 12004KT M03/M06 A3033 RMK A01 T10291056  RH  082%=      5-min Rain = 0
KSW1 200945Z 12005KT M03/M06 A3033 RMK A01 T10291056  RH  081%=      5-min Rain = 0
KSW1 200946Z 12005KT M03/M06 A3033 RMK A01 T10281057  RH  081%=      5-min Rain = 0
KSW1 200947Z 11005KT M03/M06 A3033 RMK A01 T10281057  RH  081%=      5-min Rain = 0
KSW1 200948Z 11005KT M03/M06 A3033 RMK A01 T10291057  RH  081%=      5-min Rain = 0
KSW1 200949Z 10006KT M03/M06 A3033 RMK A01 T10311058  RH  082%=      5-min Rain = 0
KSW1 200950Z 10006KT M03/M06 A3033 RMK A01 T10321058  RH  082%=      5-min Rain = 0
KSW1 200951Z 11006KT M03/M06 A3033 RMK A01 T10331059  RH  082%=      5-min Rain = 0
KSW1 200952Z 11006KT M03/M06 A3033 RMK A01 T10311059  RH  081%=      5-min Rain = 0
KSW1 200953Z 11006KT M03/M06 A3033 RMK A01 T10291058  RH  080%=      5-min Rain = 0
KSW1 200954Z 11006KT M03/M06 A3033 RMK A01 T10271059  RH  079%=      5-min Rain = 0
KSW1 200955Z 11006KT M03/M06 A3033 RMK A01 T10261060  RH  078%=      5-min Rain = 0
KSW1 200956Z 11006KT M03/M06 A3033 RMK A01 T10261060  RH  077%=      5-min Rain = 0
KSW1 200957Z 10006KT M03/M06 A3033 RMK A01 T10261060  RH  077%=      5-min Rain = 0
KSW1 200958Z 11006KT M03/M06 A3033 RMK A01 T10271061  RH  078%=      5-min Rain = 0
KSW1 200959Z 11006KT M03/M06 A3033 RMK A01 T10271060  RH  078%=      5-min Rain = 0
KSW1 201000Z 11007KT M03/M06 A3033 RMK A01 T10271060  RH  078%=      5-min Rain = 0
KSW1 201001Z 11007KT M03/M06 A3032 RMK A01 T10271060  RH  078%=      5-min Rain = 0
KSW1 201002Z 11006KT M03/M06 A3032 RMK A01 T10261060  RH  077%=      5-min Rain = 0
KSW1 201003Z 11006KT M03/M06 A3032 RMK A01 T10251060  RH  077%=      5-min Rain = 0
KSW1 201004Z 12006KT M03/M06 A3032 RMK A01 T10251060  RH  077%=      5-min Rain = 0
KSW1 201005Z 12005KT M03/M06 A3032 RMK A01 T10251060  RH  077%=      5-min Rain = 0
KSW1 201006Z 12006KT M03/M06 A3033 RMK A01 T10261060  RH  077%=      5-min Rain = 0
KSW1 201007Z 11006KT M03/M06 A3033 RMK A01 T10261060  RH  078%=      5-min Rain = 0
KSW1 201008Z 10006KT M03/M06 A3033 RMK A01 T10271060  RH  078%=      5-min Rain = 0
KSW1 201009Z 10006KT M03/M06 A3033 RMK A01 T10281060  RH  079%=      5-min Rain = 0
KSW1 201010Z 10006KT M03/M06 A3033 RMK A01 T10291060  RH  079%=      5-min Rain = 0
KSW1 201011Z 10006KT M03/M06 A3032 RMK A01 T10291060  RH  079%=      5-min Rain = 0
KSW1 201012Z 10007KT M03/M06 A3033 RMK A01 T10291060  RH  079%=      5-min Rain = 0
KSW1 201013Z 09007KT M03/M06 A3033 RMK A01 T10291061  RH  079%=      5-min Rain = 0
KSW1 201014Z 10007KT M03/M06 A3033 RMK A01 T10281061  RH  078%=      5-min Rain = 0
KSW1 201015Z 10007KT M03/M06 A3033 RMK A01 T10261060  RH  077%=      5-min Rain = 0
KSW1 201016Z 10007KT M03/M06 A3033 RMK A01 T10261061  RH  077%=      5-min Rain = 0
KSW1 201017Z 10007KT M03/M06 A3033 RMK A01 T10251062  RH  076%=      5-min Rain = 0
KSW1 201018Z 09006KT M02/M06 A3033 RMK A01 T10241061  RH  076%=      5-min Rain = 0
KSW1 201019Z 09007KT M02/M06 A3032 RMK A01 T10241061  RH  076%=      5-min Rain = 0
KSW1 201020Z 09008KT M03/M06 A3032 RMK A01 T10251061  RH  076%=      5-min Rain = 0
KSW1 201021Z 09008KT M03/M06 A3033 RMK A01 T10251061  RH  076%=      5-min Rain = 0
KSW1 201022Z 09008KT M03/M06 A3033 RMK A01 T10251061  RH  076%=      5-min Rain = 0
KSW1 201023Z 09007KT M03/M06 A3033 RMK A01 T10251062  RH  076%=      5-min Rain = 0
KSW1 201024Z 10007KT M03/M06 A3033 RMK A01 T10251062  RH  075%=      5-min Rain = 0
KSW1 201025Z 10007KT M02/M06 A3033 RMK A01 T10241063  RH  074%=      5-min Rain = 0
KSW1 201026Z 10006KT M02/M06 A3033 RMK A01 T10231064  RH  073%=      5-min Rain = 0
KSW1 201027Z 10006KT M02/M06 A3033 RMK A01 T10231064  RH  073%=      5-min Rain = 0
KSW1 201028Z 09006KT M02/M06 A3033 RMK A01 T10231064  RH  073%=      5-min Rain = 0
KSW1 201029Z 09006KT M02/M06 A3033 RMK A01 T10231064  RH  074%=      5-min Rain = 0
KSW1 201030Z 09007KT M02/M06 A3033 RMK A01 T10241064  RH  074%=      5-min Rain = 0
KSW1 201031Z 09006KT M02/M06 A3033 RMK A01 T10241064  RH  074%=      5-min Rain = 0
KSW1 201032Z 10007KT M02/M06 A3033 RMK A01 T10241064  RH  074%=      5-min Rain = 0
KSW1 201033Z 10007KT M02/M06 A3033 RMK A01 T10241064  RH  074%=      5-min Rain = 0
KSW1 201034Z 09006KT M02/M07 A3033 RMK A01 T10241065  RH  074%=      5-min Rain = 0
KSW1 201035Z 09007KT M02/M07 A3033 RMK A01 T10241066  RH  073%=      5-min Rain = 0
KSW1 201036Z 09007KT M02/M07 A3033 RMK A01 T10231066  RH  072%=      5-min Rain = 0
KSW1 201037Z 09007KT M02/M07 A3033 RMK A01 T10221066  RH  072%=      5-min Rain = 0
KSW1 201038Z 09007KT M02/M07 A3033 RMK A01 T10211065  RH  072%=      5-min Rain = 0
KSW1 201039Z 10007KT M02/M07 A3033 RMK A01 T10211066  RH  072%=      5-min Rain = 0
KSW1 201040Z 10007KT M02/M07 A3033 RMK A01 T10211066  RH  071%=      5-min Rain = 0
KSW1 201041Z 10007KT M02/M07 A3033 RMK A01 T10201066  RH  071%=      5-min Rain = 0
KSW1 201042Z 10007KT M02/M07 A3033 RMK A01 T10201065  RH  071%=      5-min Rain = 0
KSW1 201043Z 10007KT M02/M07 A3033 RMK A01 T10221065  RH  072%=      5-min Rain = 0
KSW1 201044Z 10006KT M02/M07 A3033 RMK A01 T10231065  RH  073%=      5-min Rain = 0
KSW1 201045Z 10006KT M02/M07 A3033 RMK A01 T10241065  RH  073%=      5-min Rain = 0
KSW1 201046Z 11006KT M02/M07 A3033 RMK A01 T10241065  RH  074%=      5-min Rain = 0
KSW1 201047Z 10006KT M02/M07 A3033 RMK A01 T10241065  RH  074%=      5-min Rain = 0
KSW1 201048Z 10006KT M02/M07 A3033 RMK A01 T10241065  RH  074%=      5-min Rain = 0
KSW1 201049Z 10005KT M03/M06 A3033 RMK A01 T10251064  RH  074%=      5-min Rain = 0
KSW1 201050Z 10005KT M03/M06 A3033 RMK A01 T10261064  RH  075%=      5-min Rain = 0
KSW1 201051Z 10005KT M03/M06 A3033 RMK A01 T10271064  RH  075%=      5-min Rain = 0
KSW1 201052Z 10005KT M03/M06 A3033 RMK A01 T10281064  RH  076%=      5-min Rain = 0
KSW1 201053Z 11005KT M03/M07 A3033 RMK A01 T10281065  RH  076%=      5-min Rain = 0
KSW1 201054Z 11005KT M03/M07 A3033 RMK A01 T10291065  RH  076%=      5-min Rain = 0
KSW1 201055Z 11005KT M03/M07 A3033 RMK A01 T10291065  RH  076%=      5-min Rain = 0
KSW1 201056Z 12006KT M03/M06 A3032 RMK A01 T10291064  RH  077%=      5-min Rain = 0
KSW1 201057Z 12006KT M03/M06 A3032 RMK A01 T10291064  RH  077%=      5-min Rain = 0
KSW1 201058Z 12006KT M03/M06 A3033 RMK A01 T10301064  RH  077%=      5-min Rain = 0
KSW1 201059Z 12006KT M03/M06 A3033 RMK A01 T10301064  RH  077%=      5-min Rain = 0
KSW1 201100Z 12006KT M03/M06 A3033 RMK A01 T10301064  RH  077%=      5-min Rain = 0
KSW1 201101Z 12007KT M03/M06 A3033 RMK A01 T10301064  RH  077%=      5-min Rain = 0
KSW1 201102Z 12006KT M03/M06 A3033 RMK A01 T10301064  RH  077%=      5-min Rain = 0
KSW1 201103Z 12006KT M03/M06 A3033 RMK A01 T10291064  RH  077%=      5-min Rain = 0
KSW1 201104Z 13006KT M03/M06 A3033 RMK A01 T10281064  RH  077%=      5-min Rain = 0
KSW1 201105Z 13006KT M03/M06 A3033 RMK A01 T10281063  RH  076%=      5-min Rain = 0
KSW1 201106Z 13005KT M03/M06 A3033 RMK A01 T10271063  RH  076%=      5-min Rain = 0
KSW1 201107Z 14005KT M03/M06 A3033 RMK A01 T10271064  RH  076%=      5-min Rain = 0
KSW1 201108Z 15004KT M03/M06 A3033 RMK A01 T10271063  RH  076%=      5-min Rain = 0
KSW1 201109Z 18002KT M03/M06 A3033 RMK A01 T10271062  RH  077%=      5-min Rain = 0
KSW1 201110Z 17003KT M03/M06 A3032 RMK A01 T10291062  RH  078%=      5-min Rain = 0
KSW1 201111Z 15003KT M03/M06 A3032 RMK A01 T10301062  RH  079%=      5-min Rain = 0
KSW1 201112Z 15004KT M03/M06 A3032 RMK A01 T10311062  RH  079%=      5-min Rain = 0
KSW1 201113Z 15004KT M03/M06 A3032 RMK A01 T10311062  RH  079%=      5-min Rain = 0
KSW1 201114Z 15005KT M03/M06 A3032 RMK A01 T10311062  RH  079%=      5-min Rain = 0
KSW1 201115Z 14005KT M03/M06 A3032 RMK A01 T10331062  RH  080%=      5-min Rain = 0
KSW1 201116Z 14005KT M03/M06 A3032 RMK A01 T10331063  RH  080%=      5-min Rain = 0
KSW1 201117Z 14005KT M03/M06 A3032 RMK A01 T10311062  RH  079%=      5-min Rain = 0
KSW1 201118Z 14004KT M03/M06 A3032 RMK A01 T10301063  RH  078%=      5-min Rain = 0
KSW1 201119Z 14004KT M03/M06 A3032 RMK A01 T10291063  RH  078%=      5-min Rain = 0
KSW1 201120Z 13004KT M03/M06 A3032 RMK A01 T10291062  RH  078%=      5-min Rain = 0
KSW1 201121Z 13005KT M03/M06 A3032 RMK A01 T10301063  RH  078%=      5-min Rain = 0
KSW1 201122Z 13005KT M03/M06 A3032 RMK A01 T10301063  RH  078%=      5-min Rain = 0
KSW1 201123Z 12005KT M03/M06 A3032 RMK A01 T10311063  RH  079%=      5-min Rain = 0
KSW1 201124Z 12005KT M03/M06 A3032 RMK A01 T10321063  RH  079%=      5-min Rain = 0
KSW1 201125Z 12006KT M03/M06 A3032 RMK A01 T10331063  RH  080%=      5-min Rain = 0
KSW1 201126Z 12006KT M03/M06 A3032 RMK A01 T10341063  RH  080%=      5-min Rain = 0
KSW1 201127Z 12007KT M03/M06 A3032 RMK A01 T10341063  RH  081%=      5-min Rain = 0
KSW1 201128Z 12007KT M03/M06 A3031 RMK A01 T10341063  RH  081%=      5-min Rain = 0
KSW1 201129Z 12007KT M03/M06 A3031 RMK A01 T10341063  RH  081%=      5-min Rain = 0
KSW1 201130Z 12007KT M03/M06 A3031 RMK A01 T10331063  RH  080%=      5-min Rain = 0
KSW1 201131Z 12007KT M03/M06 A3031 RMK A01 T10331063  RH  080%=      5-min Rain = 0
KSW1 201132Z 12007KT M03/M06 A3031 RMK A01 T10321063  RH  079%=      5-min Rain = 0
KSW1 201133Z 12008KT M03/M06 A3031 RMK A01 T10311064  RH  078%=      5-min Rain = 0
KSW1 201134Z 12008KT M03/M06 A3031 RMK A01 T10301063  RH  078%=      5-min Rain = 0
KSW1 201135Z 12008KT M03/M06 A3031 RMK A01 T10291063  RH  077%=      5-min Rain = 0
KSW1 201136Z 12008KT M03/M06 A3031 RMK A01 T10281064  RH  077%=      5-min Rain = 0
KSW1 201137Z 12008KT M03/M06 A3031 RMK A01 T10271064  RH  076%=      5-min Rain = 0
KSW1 201138Z 12008KT M03/M07 A3031 RMK A01 T10271065  RH  075%=      5-min Rain = 0
KSW1 201139Z 12008KT M03/M07 A3031 RMK A01 T10261065  RH  075%=      5-min Rain = 0
KSW1 201140Z 13008KT M03/M07 A3031 RMK A01 T10261065  RH  075%=      5-min Rain = 0
KSW1 201141Z 13007KT M03/M07 A3031 RMK A01 T10261065  RH  074%=      5-min Rain = 0
KSW1 201142Z 12007KT M03/M07 A3031 RMK A01 T10251066  RH  074%=      5-min Rain = 0
KSW1 201143Z 12007KT M02/M07 A3031 RMK A01 T10241065  RH  073%=      5-min Rain = 0
KSW1 201144Z 12007KT M02/M07 A3031 RMK A01 T10241066  RH  073%=      5-min Rain = 0
KSW1 201145Z 12007KT M02/M07 A3031 RMK A01 T10241065  RH  073%=      5-min Rain = 0
KSW1 201146Z 11007KT M02/M07 A3031 RMK A01 T10241065  RH  073%=      5-min Rain = 0
KSW1 201147Z 12007KT M02/M07 A3031 RMK A01 T10241065  RH  074%=      5-min Rain = 0
KSW1 201148Z 12007KT M02/M07 A3031 RMK A01 T10241065  RH  074%=      5-min Rain = 0
KSW1 201149Z 12007KT M03/M07 A3031 RMK A01 T10251065  RH  074%=      5-min Rain = 0
KSW1 201150Z 13007KT M03/M06 A3031 RMK A01 T10251064  RH  074%=      5-min Rain = 0
KSW1 201151Z 13007KT M03/M06 A3031 RMK A01 T10251064  RH  074%=      5-min Rain = 0
KSW1 201152Z 13006KT M03/M06 A3031 RMK A01 T10251064  RH  074%=      5-min Rain = 0
KSW1 201153Z 13006KT M02/M06 A3031 RMK A01 T10241064  RH  074%=      5-min Rain = 0
KSW1 201154Z 13006KT M03/M06 A3031 RMK A01 T10251064  RH  074%=      5-min Rain = 0
KSW1 201155Z 13006KT M03/M06 A3031 RMK A01 T10251064  RH  074%=      5-min Rain = 0
KSW1 201156Z 13007KT M03/M07 A3031 RMK A01 T10251065  RH  074%=      5-min Rain = 0
KSW1 201157Z 14007KT M03/M07 A3031 RMK A01 T10251065  RH  074%=      5-min Rain = 0
KSW1 201158Z 14006KT M03/M07 A3031 RMK A01 T10251065  RH  074%=      5-min Rain = 0
KSW1 201159Z 14006KT M03/M07 A3031 RMK A01 T10251065  RH  074%=      5-min Rain = 0
KSW1 201200Z 15005KT M03/M07 A3031 RMK A01 T10251066  RH  074%=      5-min Rain = 0
KSW1 201201Z 15005KT M03/M07 A3031 RMK A01 T10251066  RH  074%=      5-min Rain = 0
KSW1 201202Z 15004KT M03/M07 A3031 RMK A01 T10251066  RH  074%=      5-min Rain = 0
KSW1 201203Z 15004KT M03/M07 A3031 RMK A01 T10261066  RH  074%=      5-min Rain = 0
KSW1 201204Z 16004KT M03/M07 A3031 RMK A01 T10271066  RH  074%=      5-min Rain = 0
KSW1 201205Z 16004KT M03/M07 A3031 RMK A01 T10271066  RH  075%=      5-min Rain = 0
KSW1 201206Z 16004KT M03/M07 A3031 RMK A01 T10281066  RH  075%=      5-min Rain = 0
KSW1 201207Z 15004KT M03/M07 A3031 RMK A01 T10291066  RH  075%=      5-min Rain = 0
KSW1 201208Z 15004KT M03/M07 A3031 RMK A01 T10301066  RH  076%=      5-min Rain = 0
KSW1 201209Z 16004KT M03/M07 A3031 RMK A01 T10301066  RH  076%=      5-min Rain = 0
KSW1 201210Z 16004KT M03/M07 A3031 RMK A01 T10301066  RH  076%=      5-min Rain = 0
KSW1 201211Z 17005KT M03/M07 A3031 RMK A01 T10301066  RH  076%=      5-min Rain = 0
KSW1 201212Z 16005KT M03/M07 A3031 RMK A01 T10281067  RH  075%=      5-min Rain = 0
KSW1 201213Z 16005KT M03/M07 A3031 RMK A01 T10271066  RH  074%=      5-min Rain = 0
KSW1 201214Z 16005KT M03/M07 A3031 RMK A01 T10261066  RH  074%=      5-min Rain = 0
KSW1 201215Z 16005KT M03/M07 A3031 RMK A01 T10261065  RH  074%=      5-min Rain = 0
KSW1 201216Z 16004KT M03/M07 A3031 RMK A01 T10261065  RH  075%=      5-min Rain = 0
KSW1 201217Z 16004KT M03/M07 A3031 RMK A01 T10271065  RH  075%=      5-min Rain = 0
KSW1 201218Z 15004KT M03/M07 A3031 RMK A01 T10281065  RH  076%=      5-min Rain = 0
KSW1 201219Z 15004KT M03/M07 A3031 RMK A01 T10291065  RH  076%=      5-min Rain = 0
KSW1 201220Z 14004KT M03/M07 A3031 RMK A01 T10291065  RH  076%=      5-min Rain = 0
KSW1 201221Z 13004KT M03/M07 A3031 RMK A01 T10291065  RH  076%=      5-min Rain = 0
KSW1 201222Z 13004KT M03/M07 A3031 RMK A01 T10301065  RH  077%=      5-min Rain = 0
KSW1 201223Z 13004KT M03/M07 A3031 RMK A01 T10301065  RH  077%=      5-min Rain = 0
KSW1 201224Z 13004KT M03/M07 A3031 RMK A01 T10301066  RH  077%=      5-min Rain = 0
KSW1 201225Z 13004KT M03/M07 A3031 RMK A01 T10301066  RH  076%=      5-min Rain = 0
KSW1 201226Z 13004KT M03/M07 A3031 RMK A01 T10291065  RH  076%=      5-min Rain = 0
KSW1 201227Z 13004KT M03/M07 A3031 RMK A01 T10291065  RH  076%=      5-min Rain = 0
KSW1 201228Z 13004KT M03/M07 A3031 RMK A01 T10291065  RH  076%=      5-min Rain = 0
KSW1 201229Z 13005KT M03/M07 A3031 RMK A01 T10291065  RH  076%=      5-min Rain = 0
KSW1 201230Z 13005KT M03/M07 A3031 RMK A01 T10291065  RH  076%=      5-min Rain = 0
KSW1 201231Z 13005KT M03/M07 A3031 RMK A01 T10281065  RH  076%=      5-min Rain = 0
KSW1 201232Z 14006KT M03/M07 A3031 RMK A01 T10291066  RH  076%=      5-min Rain = 0
KSW1 201233Z 14005KT M03/M07 A3031 RMK A01 T10281066  RH  075%=      5-min Rain = 0
KSW1 201234Z 13005KT M03/M07 A3031 RMK A01 T10281066  RH  075%=      5-min Rain = 0
KSW1 201235Z 13005KT M03/M07 A3031 RMK A01 T10281065  RH  075%=      5-min Rain = 0
KSW1 201236Z 13005KT M03/M07 A303 RMK A01 T10281066  RH  075%=      5-min Rain = 0
KSW1 201237Z 13005KT M03/M07 A303 RMK A01 T10281066  RH  075%=      5-min Rain = 0
KSW1 201238Z 12005KT M03/M07 A303 RMK A01 T10281066  RH  075%=      5-min Rain = 0
KSW1 201239Z 13005KT M03/M07 A303 RMK A01 T10281066  RH  075%=      5-min Rain = 0
KSW1 201240Z 12005KT M03/M07 A303 RMK A01 T10281067  RH  075%=      5-min Rain = 0
KSW1 201241Z 12005KT M03/M07 A303 RMK A01 T10271067  RH  074%=      5-min Rain = 0
KSW1 201242Z 13005KT M03/M07 A303 RMK A01 T10271068  RH  073%=      5-min Rain = 0
KSW1 201243Z 13005KT M03/M07 A303 RMK A01 T10271068  RH  073%=      5-min Rain = 0
KSW1 201244Z 13005KT M03/M07 A303 RMK A01 T10271068  RH  073%=      5-min Rain = 0
KSW1 201245Z 13005KT M03/M07 A303 RMK A01 T10271067  RH  074%=      5-min Rain = 0
KSW1 201246Z 13005KT M03/M07 A303 RMK A01 T10281067  RH  074%=      5-min Rain = 0
KSW1 201247Z 13005KT M03/M07 A303 RMK A01 T10281067  RH  075%=      5-min Rain = 0
KSW1 201248Z 14005KT M03/M07 A303 RMK A01 T10281066  RH  075%=      5-min Rain = 0
KSW1 201249Z 15005KT M03/M07 A303 RMK A01 T10281067  RH  075%=      5-min Rain = 0
KSW1 201250Z 15005KT M03/M07 A303 RMK A01 T10281067  RH  075%=      5-min Rain = 0
KSW1 201251Z 15005KT M03/M07 A303 RMK A01 T10281068  RH  074%=      5-min Rain = 0
KSW1 201252Z 15004KT M03/M07 A303 RMK A01 T10271067  RH  074%=      5-min Rain = 0
KSW1 201253Z 15004KT M03/M07 A303 RMK A01 T10271068  RH  074%=      5-min Rain = 0
KSW1 201254Z 15004KT M03/M07 A303 RMK A01 T10271067  RH  074%=      5-min Rain = 0
KSW1 201255Z 15004KT M03/M07 A303 RMK A01 T10271068  RH  073%=      5-min Rain = 0
KSW1 201256Z 16004KT M03/M07 A303 RMK A01 T10261068  RH  073%=      5-min Rain = 0
KSW1 201257Z 16003KT M03/M07 A303 RMK A01 T10261068  RH  073%=      5-min Rain = 0
KSW1 201258Z 16003KT M03/M07 A303 RMK A01 T10261068  RH  073%=      5-min Rain = 0
KSW1 201259Z 16003KT M03/M07 A303 RMK A01 T10251068  RH  073%=      5-min Rain = 0
KSW1 201300Z 16003KT M03/M07 A303 RMK A01 T10261068  RH  073%=      5-min Rain = 0
KSW1 201301Z 16003KT M03/M07 A303 RMK A01 T10261068  RH  073%=      5-min Rain = 0
KSW1 201302Z 15003KT M03/M07 A303 RMK A01 T10251067  RH  073%=      5-min Rain = 0
KSW1 201303Z 15004KT M03/M07 A303 RMK A01 T10261066  RH  074%=      5-min Rain = 0
KSW1 201304Z 16004KT M03/M07 A303 RMK A01 T10271066  RH  074%=      5-min Rain = 0
KSW1 201305Z 15004KT M03/M07 A303 RMK A01 T10271066  RH  075%=      5-min Rain = 0
KSW1 201306Z 15004KT M03/M07 A303 RMK A01 T10281066  RH  075%=      5-min Rain = 0
KSW1 201307Z 15004KT M03/M07 A303 RMK A01 T10281066  RH  075%=      5-min Rain = 0
KSW1 201308Z 15004KT M03/M07 A303 RMK A01 T10291066  RH  075%=      5-min Rain = 0
KSW1 201309Z 15004KT M03/M07 A303 RMK A01 T10281066  RH  075%=      5-min Rain = 0
KSW1 201310Z 15004KT M03/M07 A303 RMK A01 T10281066  RH  076%=      5-min Rain = 0
KSW1 201311Z 15004KT M03/M07 A303 RMK A01 T10291066  RH  076%=      5-min Rain = 0
KSW1 201312Z 15004KT M03/M07 A303 RMK A01 T10291065  RH  076%=      5-min Rain = 0
KSW1 201313Z 15005KT M03/M07 A303 RMK A01 T10291066  RH  076%=      5-min Rain = 0
KSW1 201314Z 16005KT M03/M07 A303 RMK A01 T10291065  RH  076%=      5-min Rain = 0
KSW1 201315Z 16005KT M03/M07 A303 RMK A01 T10291066  RH  076%=      5-min Rain = 0
KSW1 201316Z 16005KT M03/M07 A303 RMK A01 T10291066  RH  076%=      5-min Rain = 0
KSW1 201317Z 15005KT M03/M07 A303 RMK A01 T10281065  RH  076%=      5-min Rain = 0
KSW1 201318Z 15005KT M03/M06 A303 RMK A01 T10281064  RH  076%=      5-min Rain = 0
KSW1 201319Z 15005KT M03/M06 A303 RMK A01 T10281064  RH  077%=      5-min Rain = 0
KSW1 201320Z 16005KT M03/M06 A303 RMK A01 T10281063  RH  077%=      5-min Rain = 0
KSW1 201321Z 16005KT M03/M06 A303 RMK A01 T10281063  RH  077%=      5-min Rain = 0
KSW1 201322Z 16005KT M03/M06 A303 RMK A01 T10281063  RH  077%=      5-min Rain = 0
KSW1 201323Z 16004KT M03/M06 A303 RMK A01 T10281062  RH  077%=      5-min Rain = 0
KSW1 201324Z 16005KT M03/M06 A303 RMK A01 T10281062  RH  078%=      5-min Rain = 0
KSW1 201325Z 16005KT M03/M06 A303 RMK A01 T10281062  RH  077%=      5-min Rain = 0
KSW1 201326Z 16005KT M03/M06 A303 RMK A01 T10281062  RH  077%=      5-min Rain = 0
KSW1 201327Z 15005KT M03/M06 A303 RMK A01 T10281062  RH  077%=      5-min Rain = 0
KSW1 201328Z 15005KT M03/M06 A303 RMK A01 T10281062  RH  077%=      5-min Rain = 0
KSW1 201329Z 15005KT M03/M06 A303 RMK A01 T10281062  RH  078%=      5-min Rain = 0
KSW1 201330Z 16006KT M03/M06 A303 RMK A01 T10281062  RH  078%=      5-min Rain = 0
KSW1 201331Z 16006KT M03/M06 A303 RMK A01 T10281062  RH  077%=      5-min Rain = 0
KSW1 201332Z 16006KT M03/M06 A303 RMK A01 T10281062  RH  077%=      5-min Rain = 0
KSW1 201333Z 16006KT M03/M06 A303 RMK A01 T10271062  RH  077%=      5-min Rain = 0
KSW1 201334Z 16006KT M03/M06 A303 RMK A01 T10271062  RH  077%=      5-min Rain = 0
KSW1 201335Z 16006KT M03/M06 A303 RMK A01 T10271062  RH  077%=      5-min Rain = 0
KSW1 201336Z 16007KT M03/M06 A303 RMK A01 T10261061  RH  077%=      5-min Rain = 0
KSW1 201337Z 16006KT M03/M06 A303 RMK A01 T10271062  RH  077%=      5-min Rain = 0
KSW1 201338Z 16006KT M03/M06 A303 RMK A01 T10261062  RH  076%=      5-min Rain = 0
KSW1 201339Z 16006KT M03/M06 A303 RMK A01 T10261062  RH  076%=      5-min Rain = 0
KSW1 201340Z 16006KT M03/M06 A303 RMK A01 T10261063  RH  076%=      5-min Rain = 0
KSW1 201341Z 16006KT M03/M06 A303 RMK A01 T10261063  RH  076%=      5-min Rain = 0
KSW1 201342Z 16006KT M03/M06 A303 RMK A01 T10251063  RH  075%=      5-min Rain = 0
KSW1 201343Z 16006KT M03/M06 A303 RMK A01 T10251063  RH  075%=      5-min Rain = 0
KSW1 201344Z 15006KT M03/M06 A303 RMK A01 T10251063  RH  075%=      5-min Rain = 0
KSW1 201345Z 15006KT M03/M06 A303 RMK A01 T10251063  RH  075%=      5-min Rain = 0
KSW1 201346Z 16006KT M03/M06 A303 RMK A01 T10251064  RH  075%=      5-min Rain = 0
KSW1 201347Z 15006KT M03/M06 A303 RMK A01 T10251064  RH  074%=      5-min Rain = 0
KSW1 201348Z 16006KT M02/M07 A303 RMK A01 T10241065  RH  074%=      5-min Rain = 0
KSW1 201349Z 16006KT M02/M07 A303 RMK A01 T10231065  RH  073%=      5-min Rain = 0
KSW1 201350Z 16006KT M02/M07 A303 RMK A01 T10231065  RH  073%=      5-min Rain = 0
KSW1 201351Z 16006KT M02/M07 A303 RMK A01 T10221065  RH  072%=      5-min Rain = 0
KSW1 201352Z 16006KT M02/M07 A303 RMK A01 T10221065  RH  072%=      5-min Rain = 0
KSW1 201353Z 16006KT M02/M06 A303 RMK A01 T10221064  RH  073%=      5-min Rain = 0
KSW1 201354Z 16007KT M02/M06 A303 RMK A01 T10221064  RH  073%=      5-min Rain = 0
KSW1 201355Z 16006KT M02/M07 A303 RMK A01 T10221065  RH  072%=      5-min Rain = 0
KSW1 201356Z 16006KT M02/M06 A303 RMK A01 T10211064  RH  072%=      5-min Rain = 0
KSW1 201357Z 16006KT M02/M06 A303 RMK A01 T10211064  RH  073%=      5-min Rain = 0
KSW1 201358Z 16006KT M02/M06 A303 RMK A01 T10211064  RH  073%=      5-min Rain = 0
KSW1 201359Z 16006KT M02/M06 A303 RMK A01 T10201064  RH  072%=      5-min Rain = 0
KSW1 201400Z 16006KT M02/M07 A303 RMK A01 T10201065  RH  072%=      5-min Rain = 0
KSW1 201401Z 16006KT M02/M06 A303 RMK A01 T10191064  RH  071%=      5-min Rain = 0
KSW1 201402Z 16006KT M02/M07 A303 RMK A01 T10191065  RH  071%=      5-min Rain = 0
KSW1 201403Z 16006KT M02/M07 A303 RMK A01 T10181065  RH  070%=      5-min Rain = 0
KSW1 201404Z 16006KT M02/M06 A3031 RMK A01 T10171064  RH  070%=      5-min Rain = 0
KSW1 201405Z 17006KT M02/M07 A3031 RMK A01 T10171065  RH  070%=      5-min Rain = 0
KSW1 201406Z 17006KT M02/M07 A3031 RMK A01 T10171066  RH  069%=      5-min Rain = 0
KSW1 201407Z 17007KT M02/M07 A3031 RMK A01 T10161066  RH  069%=      5-min Rain = 0
KSW1 201408Z 17007KT M02/M07 A3031 RMK A01 T10161066  RH  069%=      5-min Rain = 0
KSW1 201409Z 17008KT M02/M07 A3031 RMK A01 T10161067  RH  068%=      5-min Rain = 0
KSW1 201410Z 17007KT M02/M07 A303 RMK A01 T10151068  RH  067%=      5-min Rain = 0
KSW1 201411Z 17008KT M01/M07 A303 RMK A01 T10141067  RH  067%=      5-min Rain = 0
KSW1 201412Z 16008KT M01/M07 A303 RMK A01 T10131068  RH  067%=      5-min Rain = 0
KSW1 201413Z 16008KT M01/M07 A303 RMK A01 T10131067  RH  067%=      5-min Rain = 0
KSW1 201414Z 16008KT M01/M07 A303 RMK A01 T10131068  RH  066%=      5-min Rain = 0
KSW1 201415Z 16008KT M01/M07 A303 RMK A01 T10121068  RH  066%=      5-min Rain = 0
KSW1 201416Z 16010KT M01/M07 A303 RMK A01 T10121066  RH  067%=      5-min Rain = 0
KSW1 201417Z 16009KT M01/M07 A303 RMK A01 T10111067  RH  066%=      5-min Rain = 0
KSW1 201418Z 16009KT M01/M07 A303 RMK A01 T10111068  RH  065%=      5-min Rain = 0
KSW1 201419Z 16009KT M01/M07 A303 RMK A01 T10111067  RH  066%=      5-min Rain = 0
KSW1 201420Z 16008KT M01/M07 A303 RMK A01 T10101066  RH  066%=      5-min Rain = 0
KSW1 201421Z 16009KT M01/M07 A303 RMK A01 T10101066  RH  066%=      5-min Rain = 0
KSW1 201422Z 16008KT M01/M07 A303 RMK A01 T10101066  RH  065%=      5-min Rain = 0
KSW1 201423Z 16007KT M01/M07 A303 RMK A01 T10101065  RH  066%=      5-min Rain = 0
KSW1 201424Z 16007KT M01/M06 A303 RMK A01 T10091064  RH  066%=      5-min Rain = 0
KSW1 201425Z 16008KT M01/M07 A303 RMK A01 T10091065  RH  066%=      5-min Rain = 0
KSW1 201426Z 16008KT M01/M07 A303 RMK A01 T10091065  RH  066%=      5-min Rain = 0
KSW1 201427Z 15008KT M01/M07 A303 RMK A01 T10081065  RH  065%=      5-min Rain = 0
KSW1 201428Z 15007KT M01/M06 A303 RMK A01 T10071063  RH  066%=      5-min Rain = 0
KSW1 201429Z 16008KT M01/M06 A303 RMK A01 T10071063  RH  066%=      5-min Rain = 0
KSW1 201430Z 16008KT M01/M06 A303 RMK A01 T10071063  RH  066%=      5-min Rain = 0
KSW1 201431Z 16008KT M01/M06 A303 RMK A01 T10071064  RH  065%=      5-min Rain = 0
KSW1 201432Z 16008KT M01/M06 A303 RMK A01 T10061063  RH  066%=      5-min Rain = 0
KSW1 201433Z 16009KT M01/M06 A303 RMK A01 T10061063  RH  065%=      5-min Rain = 0
KSW1 201434Z 16008KT M01/M06 A303 RMK A01 T10051063  RH  065%=      5-min Rain = 0
KSW1 201435Z 16008KT M01/M06 A303 RMK A01 T10051063  RH  065%=      5-min Rain = 0
KSW1 201436Z 16009KT M01/M06 A303 RMK A01 T10051063  RH  065%=      5-min Rain = 0
KSW1 201437Z 16009KT M00/M06 A303 RMK A01 T10041064  RH  064%=      5-min Rain = 0
KSW1 201438Z 16009KT M00/M06 A303 RMK A01 T10041063  RH  064%=      5-min Rain = 0
KSW1 201439Z 16009KT M00/M06 A303 RMK A01 T10041062  RH  065%=      5-min Rain = 0
KSW1 201440Z 16009KT M00/M06 A303 RMK A01 T10031063  RH  064%=      5-min Rain = 0
KSW1 201441Z 16009KT M00/M06 A303 RMK A01 T10031063  RH  064%=      5-min Rain = 0
KSW1 201442Z 16008KT M00/M06 A303 RMK A01 T10021064  RH  063%=      5-min Rain = 0
KSW1 201443Z 16008KT M00/M06 A303 RMK A01 T10021061  RH  065%=      5-min Rain = 0
KSW1 201444Z 16009KT M00/M06 A303 RMK A01 T10021062  RH  064%=      5-min Rain = 0
KSW1 201445Z 16009KT M00/M06 A303 RMK A01 T10021062  RH  064%=      5-min Rain = 0
KSW1 201446Z 16008KT M00/M06 A303 RMK A01 T10011062  RH  064%=      5-min Rain = 0
KSW1 201447Z 16007KT M00/M06 A303 RMK A01 T10011061  RH  064%=      5-min Rain = 0
KSW1 201448Z 16006KT M00/M06 A303 RMK A01 T10011061  RH  064%=      5-min Rain = 0
KSW1 201449Z 16006KT M00/M06 A303 RMK A01 T10011060  RH  065%=      5-min Rain = 0
KSW1 201450Z 16007KT M00/M06 A303 RMK A01 T10011061  RH  064%=      5-min Rain = 0
KSW1 201451Z 15007KT M00/M06 A303 RMK A01 T10011061  RH  064%=      5-min Rain = 0
KSW1 201452Z 16008KT 00/06 A303 RMK A01 T00-00-60  RH  064%=      5-min Rain = 0
KSW1 201453Z 16009KT 00/06 A303 RMK A01 T00-00-61  RH  064%=      5-min Rain = 0
KSW1 201454Z 15008KT 00/06 A303 RMK A01 T00000-61  RH  063%=      5-min Rain = 0
KSW1 201455Z 15007KT 00/06 A303 RMK A01 T00000-60  RH  064%=      5-min Rain = 0
KSW1 201456Z 16008KT 00/06 A303 RMK A01 T00000-60  RH  064%=      5-min Rain = 0
KSW1 201457Z 15009KT 00/M06 A303 RMK A01 T00011060  RH  063%=      5-min Rain = 0
KSW1 201458Z 16009KT 00/M06 A303 RMK A01 T00011060  RH  064%=      5-min Rain = 0
KSW1 201459Z 16009KT 00/M06 A303 RMK A01 T00011060  RH  063%=      5-min Rain = 0
KSW1 201500Z 16009KT 00/M06 A303 RMK A01 T00011060  RH  064%=      5-min Rain = 0
KSW1 201501Z 16010KT 00/M06 A303 RMK A01 T00011060  RH  064%=      5-min Rain = 0
KSW1 201502Z 16009KT 00/M06 A303 RMK A01 T00021060  RH  063%=      5-min Rain = 0
KSW1 201503Z 16009KT 00/M06 A303 RMK A01 T00021060  RH  063%=      5-min Rain = 0
KSW1 201504Z 16009KT 00/M06 A303 RMK A01 T00021059  RH  063%=      5-min Rain = 0
KSW1 201505Z 16009KT 00/M06 A303 RMK A01 T00021059  RH  063%=      5-min Rain = 0
KSW1 201506Z 16009KT 00/M06 A303 RMK A01 T00031058  RH  064%=      5-min Rain = 0
KSW1 201507Z 16009KT 00/M06 A303 RMK A01 T00031058  RH  063%=      5-min Rain = 0
KSW1 201508Z 16009KT 00/M06 A303 RMK A01 T00031058  RH  063%=      5-min Rain = 0
KSW1 201509Z 16008KT 00/M06 A303 RMK A01 T00041057  RH  064%=      5-min Rain = 0
KSW1 201510Z 16008KT 00/M06 A303 RMK A01 T00041056  RH  064%=      5-min Rain = 0
KSW1 201511Z 16008KT 01/M06 A303 RMK A01 T00051056  RH  064%=      5-min Rain = 0
KSW1 201512Z 16008KT 01/M06 A303 RMK A01 T00051059  RH  062%=      5-min Rain = 0
KSW1 201513Z 16008KT 01/M06 A303 RMK A01 T00061057  RH  063%=      5-min Rain = 0
KSW1 201514Z 16007KT 01/M06 A303 RMK A01 T00071057  RH  062%=      5-min Rain = 0
KSW1 201515Z 16009KT 01/M06 A303 RMK A01 T00081055  RH  063%=      5-min Rain = 0
KSW1 201516Z 16008KT 01/M06 A303 RMK A01 T00091055  RH  062%=      5-min Rain = 0
KSW1 201517Z 16007KT 01/M06 A303 RMK A01 T00101055  RH  062%=      5-min Rain = 0
KSW1 201518Z 16008KT 01/M06 A303 RMK A01 T00101055  RH  062%=      5-min Rain = 0
KSW1 201519Z 16008KT 01/M06 A303 RMK A01 T00101056  RH  061%=      5-min Rain = 0
KSW1 201520Z 16009KT 01/M06 A303 RMK A01 T00111056  RH  061%=      5-min Rain = 0
KSW1 201521Z 16008KT 01/M06 A303 RMK A01 T00121056  RH  061%=      5-min Rain = 0
KSW1 201522Z 16008KT 01/M05 A303 RMK A01 T00121054  RH  061%=      5-min Rain = 0
KSW1 201523Z 16010KT 01/M06 A303 RMK A01 T00131055  RH  061%=      5-min Rain = 0
KSW1 201524Z 16008KT 01/M05 A303 RMK A01 T00141054  RH  060%=      5-min Rain = 0
KSW1 201525Z 16007KT 02/M05 A303 RMK A01 T00151052  RH  061%=      5-min Rain = 0
KSW1 201526Z 16008KT 02/M05 A303 RMK A01 T00161052  RH  061%=      5-min Rain = 0
KSW1 201527Z 16009KT 02/M05 A303 RMK A01 T00171053  RH  060%=      5-min Rain = 0
KSW1 201528Z 16009KT 02/M05 A303 RMK A01 T00181054  RH  059%=      5-min Rain = 0
KSW1 201529Z 17008KT 02/M05 A303 RMK A01 T00191052  RH  059%=      5-min Rain = 0
KSW1 201530Z 16008KT 02/M05 A303 RMK A01 T00211051  RH  059%=      5-min Rain = 0
KSW1 201531Z 17006KT 02/M05 A303 RMK A01 T00231049  RH  059%=      5-min Rain = 0
KSW1 201532Z 17006KT 03/M05 A303 RMK A01 T00251046  RH  059%=      5-min Rain = 0
KSW1 201533Z 16006KT 03/M05 A303 RMK A01 T00261049  RH  058%=      5-min Rain = 0
KSW1 201534Z 16008KT 03/M05 A303 RMK A01 T00271050  RH  057%=      5-min Rain = 0
KSW1 201535Z 16006KT 03/M05 A303 RMK A01 T00281050  RH  057%=      5-min Rain = 0
KSW1 201536Z 16006KT 03/M05 A303 RMK A01 T00291049  RH  057%=      5-min Rain = 0
KSW1 201537Z 15007KT 03/M05 A303 RMK A01 T00311047  RH  056%=      5-min Rain = 0
KSW1 201538Z 16008KT 03/M05 A303 RMK A01 T00331048  RH  055%=      5-min Rain = 0
KSW1 201539Z 16008KT 03/M05 A303 RMK A01 T00341049  RH  054%=      5-min Rain = 0
KSW1 201540Z 15008KT 04/M05 A303 RMK A01 T00351049  RH  054%=      5-min Rain = 0
KSW1 201541Z 16009KT 04/M05 A303 RMK A01 T00361049  RH  054%=      5-min Rain = 0
KSW1 201542Z 16008KT 04/M05 A303 RMK A01 T00361050  RH  053%=      5-min Rain = 0
KSW1 201543Z 16008KT 04/M05 A303 RMK A01 T00381047  RH  054%=      5-min Rain = 0
KSW1 201544Z 16006KT 04/M05 A303 RMK A01 T00391049  RH  053%=      5-min Rain = 0
KSW1 201545Z 16007KT 04/M05 A303 RMK A01 T00391047  RH  053%=      5-min Rain = 0
KSW1 201546Z 17008KT 04/M04 A303 RMK A01 T00421044  RH  053%=      5-min Rain = 0
KSW1 201547Z 17007KT 04/M05 A303 RMK A01 T00431047  RH  052%=      5-min Rain = 0
KSW1 201548Z 16008KT 04/M04 A303 RMK A01 T00441044  RH  053%=      5-min Rain = 0
KSW1 201549Z 17009KT 05/M05 A303 RMK A01 T00451046  RH  052%=      5-min Rain = 0
KSW1 201550Z 16010KT 05/M05 A303 RMK A01 T00461045  RH  052%=      5-min Rain = 0
KSW1 201551Z 16011KT 05/M05 A303 RMK A01 T00461047  RH  051%=      5-min Rain = 0
KSW1 201552Z 16008KT 05/M05 A303 RMK A01 T00461048  RH  051%=      5-min Rain = 0
KSW1 201553Z 16009KT 05/M04 A303 RMK A01 T00471044  RH  051%=      5-min Rain = 0
KSW1 201554Z 16011KT 05/M05 A303 RMK A01 T00481046  RH  051%=      5-min Rain = 0
KSW1 201555Z 17013KT 05/M05 A303 RMK A01 T00491047  RH  050%=      5-min Rain = 0
KSW1 201556Z 17011KT 05/M05 A303 RMK A01 T00491047  RH  050%=      5-min Rain = 0
KSW1 201557Z 17011KT 05/M05 A3029 RMK A01 T00491047  RH  050%=      5-min Rain = 0
KSW1 201558Z 17012KT 05/M05 A3029 RMK A01 T00501047  RH  049%=      5-min Rain = 0
KSW1 201559Z 16012KT 05/M05 A3029 RMK A01 T00501047  RH  049%=      5-min Rain = 0
KSW1 201600Z 17012KT 05/M05 A3029 RMK A01 T00511047  RH  049%=      5-min Rain = 0
KSW1 201601Z 17011KT 05/M05 A3029 RMK A01 T00531045  RH  049%=      5-min Rain = 0
KSW1 201602Z 16011KT 05/M05 A3029 RMK A01 T00541046  RH  049%=      5-min Rain = 0
KSW1 201603Z 17011KT 06/M05 A3029 RMK A01 T00551045  RH  049%=      5-min Rain = 0
KSW1 201604Z 16011KT 06/M05 A3029 RMK A01 T00551046  RH  048%=      5-min Rain = 0
KSW1 201605Z 16010KT 06/M04 A3029 RMK A01 T00561044  RH  049%=      5-min Rain = 0
KSW1 201606Z 16010KT 06/M05 A3029 RMK A01 T00561045  RH  048%=      5-min Rain = 0
KSW1 201607Z 16010KT 06/M04 A3029 RMK A01 T00571041  RH  049%=      5-min Rain = 0
KSW1 201608Z 16010KT 06/M04 A3029 RMK A01 T00591043  RH  048%=      5-min Rain = 0
KSW1 201609Z 16008KT 06/M04 A3029 RMK A01 T00591043  RH  048%=      5-min Rain = 0
KSW1 201610Z 17010KT 06/M04 A3029 RMK A01 T00591043  RH  048%=      5-min Rain = 0
KSW1 201611Z 17012KT 06/M05 A3029 RMK A01 T00591046  RH  047%=      5-min Rain = 0
KSW1 201612Z 17010KT 06/M05 A3029 RMK A01 T00581045  RH  048%=      5-min Rain = 0
KSW1 201613Z 17009KT 06/M04 A3029 RMK A01 T00581044  RH  048%=      5-min Rain = 0
KSW1 201614Z 17009KT 06/M04 A3029 RMK A01 T00591042  RH  048%=      5-min Rain = 0
KSW1 201615Z 17011KT 06/M04 A3029 RMK A01 T00601044  RH  047%=      5-min Rain = 0
KSW1 201616Z 17010KT 06/M04 A3029 RMK A01 T00601043  RH  047%=      5-min Rain = 0
KSW1 201617Z 16011KT 06/M05 A3029 RMK A01 T00601045  RH  047%=      5-min Rain = 0
KSW1 201618Z 17010KT 06/M05 A3029 RMK A01 T00591045  RH  047%=      5-min Rain = 0
KSW1 201619Z 16009KT 06/M04 A3029 RMK A01 T00591044  RH  048%=      5-min Rain = 0
KSW1 201620Z 17008KT 06/M04 A303 RMK A01 T00591043  RH  048%=      5-min Rain = 0
KSW1 201621Z 16010KT 06/M04 A303 RMK A01 T00601042  RH  048%=      5-min Rain = 0
KSW1 201622Z 16010KT 06/M04 A303 RMK A01 T00601044  RH  047%=      5-min Rain = 0
KSW1 201623Z 17008KT 06/M05 A303 RMK A01 T00591045  RH  047%=      5-min Rain = 0
KSW1 201624Z 17007KT 06/M04 A303 RMK A01 T00601042  RH  048%=      5-min Rain = 0
KSW1 201625Z 16009KT 06/M04 A303 RMK A01 T00621040  RH  048%=      5-min Rain = 0
KSW1 201626Z 16010KT 06/M04 A303 RMK A01 T00631041  RH  047%=      5-min Rain = 0
KSW1 201627Z 16009KT 06/M04 A303 RMK A01 T00641041  RH  047%=      5-min Rain = 0
KSW1 201628Z 16008KT 06/M04 A303 RMK A01 T00641041  RH  047%=      5-min Rain = 0
KSW1 201629Z 16010KT 06/M04 A303 RMK A01 T00641041  RH  047%=      5-min Rain = 0
KSW1 201630Z 16011KT 06/M04 A303 RMK A01 T00641041  RH  047%=      5-min Rain = 0
KSW1 201631Z 16010KT 06/M04 A303 RMK A01 T00641041  RH  047%=      5-min Rain = 0
KSW1 201632Z 16007KT 06/M04 A303 RMK A01 T00641041  RH  047%=      5-min Rain = 0
KSW1 201633Z 17008KT 07/M04 A303 RMK A01 T00651037  RH  048%=      5-min Rain = 0
KSW1 201634Z 18010KT 07/M04 A303 RMK A01 T00681037  RH  047%=      5-min Rain = 0
KSW1 201635Z 16009KT 07/M04 A303 RMK A01 T00701037  RH  046%=      5-min Rain = 0
KSW1 201636Z 16010KT 07/M04 A303 RMK A01 T00711038  RH  046%=      5-min Rain = 0
KSW1 201637Z 17010KT 07/M04 A303 RMK A01 T00711041  RH  045%=      5-min Rain = 0
KSW1 201638Z 17010KT 07/M04 A303 RMK A01 T00701040  RH  045%=      5-min Rain = 0
KSW1 201639Z 16009KT 07/M04 A303 RMK A01 T00701038  RH  046%=      5-min Rain = 0
KSW1 201640Z 17010KT 07/M04 A3029 RMK A01 T00721039  RH  045%=      5-min Rain = 0
KSW1 201641Z 17009KT 07/M04 A303 RMK A01 T00721039  RH  045%=      5-min Rain = 0
KSW1 201642Z 18009KT 07/M04 A3029 RMK A01 T00721040  RH  045%=      5-min Rain = 0
KSW1 201643Z 17010KT 07/M04 A3029 RMK A01 T00721038  RH  045%=      5-min Rain = 0
KSW1 201644Z 18012KT 07/M04 A3029 RMK A01 T00731041  RH  044%=      5-min Rain = 0
KSW1 201645Z 17011KT 07/M04 A3029 RMK A01 T00721041  RH  044%=      5-min Rain = 0
KSW1 201646Z 17015KT 07/M04 A3029 RMK A01 T00731041  RH  044%=      5-min Rain = 0
KSW1 201647Z 18013KT 07/M04 A3029 RMK A01 T00741044  RH  043%=      5-min Rain = 0
KSW1 201648Z 18013KT 07/M04 A3029 RMK A01 T00741044  RH  043%=      5-min Rain = 0
KSW1 201649Z 17012KT 07/M04 A3029 RMK A01 T00741042  RH  043%=      5-min Rain = 0
KSW1 201650Z 17011KT 08/M04 A3029 RMK A01 T00751041  RH  043%=      5-min Rain = 0
KSW1 201651Z 17014KT 08/M04 A3029 RMK A01 T00751042  RH  043%=      5-min Rain = 0
KSW1 201652Z 18014KT 07/M04 A3029 RMK A01 T00741043  RH  043%=      5-min Rain = 0
KSW1 201653Z 18014KT 07/M04 A3029 RMK A01 T00741043  RH  043%=      5-min Rain = 0
KSW1 201654Z 17015KT 07/M04 A3029 RMK A01 T00741044  RH  043%=      5-min Rain = 0
KSW1 201655Z 18015KT 07/M04 A3029 RMK A01 T00741044  RH  043%=      5-min Rain = 0
KSW1 201656Z 18013KT 08/M04 A3029 RMK A01 T00751043  RH  043%=      5-min Rain = 0
KSW1 201657Z 17014KT 08/M04 A3029 RMK A01 T00761042  RH  043%=      5-min Rain = 0
KSW1 201658Z 17016KT 08/M04 A3029 RMK A01 T00771042  RH  042%=      5-min Rain = 0
KSW1 201659Z 18014KT 08/M04 A3029 RMK A01 T00781043  RH  042%=      5-min Rain = 0
KSW1 201700Z 17011KT 08/M04 A3029 RMK A01 T00781040  RH  043%=      5-min Rain = 0
KSW1 201701Z 18014KT 08/M04 A3028 RMK A01 T00811041  RH  042%=      5-min Rain = 0
KSW1 201702Z 18011KT 08/M04 A3029 RMK A01 T00811038  RH  043%=      5-min Rain = 0
KSW1 201703Z 17012KT 08/M04 A3028 RMK A01 T00841038  RH  042%=      5-min Rain = 0
KSW1 201704Z 17014KT 08/M04 A3028 RMK A01 T00841039  RH  041%=      5-min Rain = 0
KSW1 201705Z 17013KT 08/M04 A3028 RMK A01 T00841042  RH  041%=      5-min Rain = 0
KSW1 201706Z 17014KT 09/M04 A3028 RMK A01 T00851039  RH  041%=      5-min Rain = 0
KSW1 201707Z 17016KT 09/M04 A3028 RMK A01 T00851040  RH  041%=      5-min Rain = 0
KSW1 201708Z 17015KT 09/M04 A3028 RMK A01 T00851041  RH  041%=      5-min Rain = 0
KSW1 201709Z 17015KT 09/M04 A3028 RMK A01 T00851040  RH  041%=      5-min Rain = 0
KSW1 201710Z 17017KT 09/M04 A3028 RMK A01 T00861040  RH  041%=      5-min Rain = 0
KSW1 201711Z 17015KT 09/M04 A3028 RMK A01 T00871039  RH  041%=      5-min Rain = 0
KSW1 201712Z 17013G18KT 09/M04 A3028 RMK A01 T00881039  RH  041%=      5-min Rain = 0
KSW1 201713Z 17015KT 09/M04 A3028 RMK A01 T00901037  RH  040%=      5-min Rain = 0
KSW1 201714Z 17016KT 09/M04 A3028 RMK A01 T00901040  RH  040%=      5-min Rain = 0
KSW1 201715Z 17012KT 09/M04 A3028 RMK A01 T00901038  RH  040%=      5-min Rain = 0
KSW1 201716Z 17013KT 09/M04 A3028 RMK A01 T00921038  RH  040%=      5-min Rain = 0
KSW1 201717Z 17014KT 09/M04 A3028 RMK A01 T00931036  RH  040%=      5-min Rain = 0
KSW1 201718Z 18014KT 09/M04 A3028 RMK A01 T00941039  RH  039%=      5-min Rain = 0
KSW1 201719Z 17015KT 09/M04 A3028 RMK A01 T00931037  RH  040%=      5-min Rain = 0
KSW1 201720Z 18014KT 09/M04 A3028 RMK A01 T00931037  RH  040%=      5-min Rain = 0
KSW1 201721Z 18013KT 10/M03 A3028 RMK A01 T00961033  RH  040%=      5-min Rain = 0
KSW1 201722Z 18012KT 10/M03 A3028 RMK A01 T00991033  RH  039%=      5-min Rain = 0
KSW1 201723Z 17014KT 10/M03 A3028 RMK A01 T01011034  RH  039%=      5-min Rain = 0
KSW1 201724Z 18015KT 10/M03 A3028 RMK A01 T01011034  RH  039%=      5-min Rain = 0
KSW1 201725Z 17013KT 10/M03 A3027 RMK A01 T00991034  RH  039%=      5-min Rain = 0
KSW1 201726Z 18015KT 10/M04 A3027 RMK A01 T01011035  RH  038%=      5-min Rain = 0
KSW1 201727Z 17013KT 10/M03 A3027 RMK A01 T01021033  RH  039%=      5-min Rain = 0
KSW1 201728Z 18015KT 10/M03 A3027 RMK A01 T01041033  RH  038%=      5-min Rain = 0
KSW1 201729Z 18016KT 10/M04 A3027 RMK A01 T01041035  RH  038%=      5-min Rain = 0
KSW1 201730Z 19018KT 10/M03 A3027 RMK A01 T01031034  RH  038%=      5-min Rain = 0
KSW1 201731Z 19015KT 10/M04 A3027 RMK A01 T01031035  RH  038%=      5-min Rain = 0
KSW1 201732Z 18014G21KT 10/M03 A3027 RMK A01 T01041031  RH  039%=      5-min Rain = 0
KSW1 201733Z 19017G23KT 11/M03 A3027 RMK A01 T01051034  RH  037%=      5-min Rain = 0
KSW1 201734Z 18019KT 10/M04 A3027 RMK A01 T01031036  RH  037%=      5-min Rain = 0
KSW1 201735Z 19015KT 10/M04 A3027 RMK A01 T01001039  RH  038%=      5-min Rain = 0
KSW1 201736Z 19011KT 10/M03 A3027 RMK A01 T01001033  RH  039%=      5-min Rain = 0
KSW1 201737Z 18013KT 11/M03 A3027 RMK A01 T01061028  RH  039%=      5-min Rain = 0
KSW1 201738Z 19014KT 11/M03 A3027 RMK A01 T01081032  RH  037%=      5-min Rain = 0
KSW1 201739Z 19017KT 11/M03 A3027 RMK A01 T01071034  RH  037%=      5-min Rain = 0
KSW1 201740Z 19015KT 10/M04 A3027 RMK A01 T01041035  RH  037%=      5-min Rain = 0
KSW1 201741Z 18015KT 10/M03 A3027 RMK A01 T01041033  RH  038%=      5-min Rain = 0
KSW1 201742Z 19015KT 11/M03 A3027 RMK A01 T01051032  RH  038%=      5-min Rain = 0
KSW1 201743Z 19016KT 11/M03 A3027 RMK A01 T01061034  RH  037%=      5-min Rain = 0
KSW1 201744Z 18019KT 11/M03 A3027 RMK A01 T01061033  RH  037%=      5-min Rain = 0
KSW1 201745Z 19018KT 10/M04 A3026 RMK A01 T01041037  RH  037%=      5-min Rain = 0
KSW1 201746Z 19018KT 10/M04 A3026 RMK A01 T01031036  RH  037%=      5-min Rain = 0
KSW1 201747Z 19017KT 10/M04 A3026 RMK A01 T01021036  RH  038%=      5-min Rain = 0
KSW1 201748Z 18017KT 10/M04 A3026 RMK A01 T01021035  RH  038%=      5-min Rain = 0
KSW1 201749Z 18017KT 10/M04 A3026 RMK A01 T01041035  RH  038%=      5-min Rain = 0
KSW1 201750Z 18016KT 10/M04 A3026 RMK A01 T01031035  RH  038%=      5-min Rain = 0
KSW1 201751Z 18017KT 10/M04 A3026 RMK A01 T01041035  RH  038%=      5-min Rain = 0
KSW1 201752Z 17016KT 10/M03 A3026 RMK A01 T01041034  RH  038%=      5-min Rain = 0
KSW1 201753Z 18019KT 11/M03 A3026 RMK A01 T01061034  RH  037%=      5-min Rain = 0
KSW1 201754Z 18016KT 11/M04 A3026 RMK A01 T01051035  RH  037%=      5-min Rain = 0
KSW1 201755Z 19020KT 11/M03 A3025 RMK A01 T01051034  RH  037%=      5-min Rain = 0
KSW1 201756Z 19019KT 10/M04 A3026 RMK A01 T01031038  RH  037%=      5-min Rain = 0
KSW1 201757Z 20017KT 10/M04 A3025 RMK A01 T01021036  RH  038%=      5-min Rain = 0
KSW1 201758Z 19014KT 10/M04 A3025 RMK A01 T01021035  RH  038%=      5-min Rain = 0
KSW1 201759Z 18016KT 11/M03 A3025 RMK A01 T01051033  RH  038%=      5-min Rain = 0
KSW1 201800Z 18016KT 11/M03 A3026 RMK A01 T01061033  RH  037%=      5-min Rain = 0
KSW1 201801Z 19018KT 11/M03 A3025 RMK A01 T01071034  RH  037%=      5-min Rain = 0
KSW1 201802Z 19014G19KT 11/M03 A3026 RMK A01 T01071034  RH  037%=      5-min Rain = 0
KSW1 201803Z 19012KT 11/M03 A3026 RMK A01 T01061032  RH  038%=      5-min Rain = 0
KSW1 201804Z 19012KT 11/M03 A3026 RMK A01 T01091029  RH  038%=      5-min Rain = 0
KSW1 201805Z 19016KT 11/M03 A3026 RMK A01 T01101032  RH  037%=      5-min Rain = 0
KSW1 201806Z 19014KT 11/M03 A3026 RMK A01 T01091031  RH  037%=      5-min Rain = 0
KSW1 201807Z 18014KT 11/M03 A3025 RMK A01 T01091033  RH  037%=      5-min Rain = 0
KSW1 201808Z 19013KT 11/M03 A3026 RMK A01 T01091029  RH  038%=      5-min Rain = 0
KSW1 201809Z 18013KT 11/M03 A3025 RMK A01 T01121030  RH  037%=      5-min Rain = 0
KSW1 201810Z 19013KT 11/M03 A3025 RMK A01 T01131030  RH  037%=      5-min Rain = 0
KSW1 201811Z 18013KT 11/M03 A3025 RMK A01 T01121031  RH  036%=      5-min Rain = 0
KSW1 201812Z 19014KT 11/M03 A3025 RMK A01 T01121031  RH  037%=      5-min Rain = 0
KSW1 201813Z 19014KT 11/M03 A3025 RMK A01 T01101033  RH  036%=      5-min Rain = 0
KSW1 201814Z 18014KT 11/M03 A3025 RMK A01 T01091033  RH  037%=      5-min Rain = 0
KSW1 201815Z 20013KT 11/M03 A3025 RMK A01 T01081033  RH  037%=      5-min Rain = 0
KSW1 201816Z 19013G18KT 11/M03 A3025 RMK A01 T01091031  RH  037%=      5-min Rain = 0
KSW1 201817Z 19016KT 11/M03 A3025 RMK A01 T01101032  RH  037%=      5-min Rain = 0
KSW1 201818Z 19014G19KT 11/M04 A3025 RMK A01 T01091035  RH  036%=      5-min Rain = 0
KSW1 201819Z 20013KT 11/M03 A3025 RMK A01 T01081034  RH  037%=      5-min Rain = 0
KSW1 201820Z 20015KT 11/M04 A3025 RMK A01 T01061036  RH  037%=      5-min Rain = 0
KSW1 201821Z 20012KT 11/M03 A3025 RMK A01 T01061034  RH  037%=      5-min Rain = 0
KSW1 201822Z 20012KT 11/M03 A3025 RMK A01 T01091028  RH  038%=      5-min Rain = 0
KSW1 201823Z 19013KT 11/M03 A3025 RMK A01 T01121028  RH  037%=      5-min Rain = 0
KSW1 201824Z 20013KT 12/M03 A3025 RMK A01 T01151029  RH  037%=      5-min Rain = 0
KSW1 201825Z 20014KT 11/M03 A3025 RMK A01 T01141031  RH  036%=      5-min Rain = 0
KSW1 201826Z 20012KT 11/M03 A3025 RMK A01 T01131029  RH  037%=      5-min Rain = 0
KSW1 201827Z 19012KT 12/M03 A3025 RMK A01 T01151028  RH  037%=      5-min Rain = 0
KSW1 201828Z 19014KT 12/M03 A3025 RMK A01 T01151031  RH  036%=      5-min Rain = 0
KSW1 201829Z 18011KT 11/M03 A3025 RMK A01 T01141028  RH  037%=      5-min Rain = 0
KSW1 201830Z 18012KT 12/M03 A3025 RMK A01 T01161030  RH  036%=      5-min Rain = 0
KSW1 201831Z 19013KT 12/M03 A3025 RMK A01 T01151030  RH  036%=      5-min Rain = 0
KSW1 201832Z 21014KT 12/M03 A3025 RMK A01 T01151030  RH  036%=      5-min Rain = 0
KSW1 201833Z 20013KT 11/M03 A3025 RMK A01 T01141031  RH  036%=      5-min Rain = 0
KSW1 201834Z 19010KT 11/M03 A3025 RMK A01 T01141028  RH  037%=      5-min Rain = 0
KSW1 201835Z 19014KT 12/M03 A3025 RMK A01 T01161029  RH  036%=      5-min Rain = 0
KSW1 201836Z 19014KT 12/M03 A3024 RMK A01 T01161029  RH  036%=      5-min Rain = 0
KSW1 201837Z 19010KT 12/M03 A3024 RMK A01 T01151032  RH  036%=      5-min Rain = 0
KSW1 201838Z 19013KT 11/M03 A3024 RMK A01 T01141030  RH  036%=      5-min Rain = 0
KSW1 201839Z 20010KT 12/M03 A3024 RMK A01 T01151028  RH  037%=      5-min Rain = 0
KSW1 201840Z 19012KT 12/M03 A3024 RMK A01 T01191025  RH  037%=      5-min Rain = 0
KSW1 201841Z 18016KT 12/M03 A3024 RMK A01 T01201029  RH  035%=      5-min Rain = 0
KSW1 201842Z 19011KT 12/M03 A3024 RMK A01 T01171032  RH  035%=      5-min Rain = 0
KSW1 201843Z 19014KT 11/M03 A3024 RMK A01 T01141032  RH  036%=      5-min Rain = 0
KSW1 201844Z 18014KT 11/M03 A3024 RMK A01 T01141030  RH  036%=      5-min Rain = 0
KSW1 201845Z 18015G20KT 12/M03 A3024 RMK A01 T01161030  RH  036%=      5-min Rain = 0
KSW1 201846Z 19015KT 12/M03 A3023 RMK A01 T01161031  RH  036%=      5-min Rain = 0
KSW1 201847Z 18015KT 12/M03 A3023 RMK A01 T01161032  RH  035%=      5-min Rain = 0
KSW1 201848Z 18013KT 12/M03 A3023 RMK A01 T01151032  RH  036%=      5-min Rain = 0
KSW1 201849Z 19013KT 12/M03 A3023 RMK A01 T01151030  RH  036%=      5-min Rain = 0
KSW1 201850Z 19012KT 12/M03 A3023 RMK A01 T01161030  RH  036%=      5-min Rain = 0
KSW1 201851Z 21012KT 12/M03 A3023 RMK A01 T01181029  RH  036%=      5-min Rain = 0
KSW1 201852Z 20012G17KT 12/M03 A3023 RMK A01 T01201027  RH  036%=      5-min Rain = 0
KSW1 201853Z 19015KT 12/M03 A3023 RMK A01 T01221028  RH  035%=      5-min Rain = 0
KSW1 201854Z 18014KT 12/M03 A3023 RMK A01 T01211029  RH  035%=      5-min Rain = 0
KSW1 201855Z 18009G14KT 12/M03 A3023 RMK A01 T01201029  RH  035%=      5-min Rain = 0
KSW1 201856Z 18009KT 12/M02 A3023 RMK A01 T01211024  RH  036%=      5-min Rain = 0
KSW1 201857Z 19012KT 12/M03 A3023 RMK A01 T01241025  RH  035%=      5-min Rain = 0
KSW1 201858Z 20012KT 12/M03 A3023 RMK A01 T01241026  RH  035%=      5-min Rain = 0
KSW1 201859Z 19012KT 12/M03 A3023 RMK A01 T01241027  RH  035%=      5-min Rain = 0
KSW1 201900Z 19013KT 12/M03 A3023 RMK A01 T01231027  RH  035%=      5-min Rain = 0
KSW1 201901Z 19013KT 12/M03 A3023 RMK A01 T01241027  RH  035%=      5-min Rain = 0
KSW1 201902Z 19016KT 12/M03 A3022 RMK A01 T01241027  RH  035%=      5-min Rain = 0
KSW1 201903Z 19016KT 12/M03 A3022 RMK A01 T01241029  RH  034%=      5-min Rain = 0
KSW1 201904Z 20014KT 12/M03 A3023 RMK A01 T01211031  RH  034%=      5-min Rain = 0
KSW1 201905Z 20015KT 12/M03 A3022 RMK A01 T01211028  RH  035%=      5-min Rain = 0
KSW1 201906Z 19015KT 12/M03 A3022 RMK A01 T01211029  RH  035%=      5-min Rain = 0
KSW1 201907Z 19014KT 12/M03 A3022 RMK A01 T01211029  RH  035%=      5-min Rain = 0
KSW1 201908Z 19012KT 12/M03 A3022 RMK A01 T01201029  RH  035%=      5-min Rain = 0
KSW1 201909Z 19014KT 12/M02 A3022 RMK A01 T01231024  RH  036%=      5-min Rain = 0
KSW1 201910Z 19013KT 13/M03 A3022 RMK A01 T01251025  RH  035%=      5-min Rain = 0
KSW1 201911Z 19013KT 13/M03 A3022 RMK A01 T01261027  RH  035%=      5-min Rain = 0
KSW1 201912Z 18014KT 13/M03 A3022 RMK A01 T01251025  RH  035%=      5-min Rain = 0
KSW1 201913Z 18013KT 13/M03 A3022 RMK A01 T01251026  RH  035%=      5-min Rain = 0
KSW1 201914Z 19015KT 13/M03 A3022 RMK A01 T01251025  RH  035%=      5-min Rain = 0
KSW1 201915Z 19013KT 13/M03 A3022 RMK A01 T01251027  RH  034%=      5-min Rain = 0
KSW1 201916Z 21013KT 12/M03 A3022 RMK A01 T01241026  RH  035%=      5-min Rain = 0
KSW1 201917Z 21013KT 13/M02 A3022 RMK A01 T01271022  RH  035%=      5-min Rain = 0
KSW1 201918Z 20011KT 13/M02 A3022 RMK A01 T01291024  RH  034%=      5-min Rain = 0
KSW1 201919Z 19015KT 13/M02 A3022 RMK A01 T01301023  RH  034%=      5-min Rain = 0
KSW1 201920Z 18014KT 13/M03 A3022 RMK A01 T01281027  RH  034%=      5-min Rain = 0
KSW1 201921Z 19013KT 12/M03 A3021 RMK A01 T01241029  RH  034%=      5-min Rain = 0
KSW1 201922Z 19011KT 12/M02 A3021 RMK A01 T01221024  RH  036%=      5-min Rain = 0
KSW1 201923Z 18016KT 13/M03 A3021 RMK A01 T01261025  RH  035%=      5-min Rain = 0
KSW1 201924Z 19015KT 13/M03 A3021 RMK A01 T01271026  RH  034%=      5-min Rain = 0
KSW1 201925Z 19015KT 13/M03 A3021 RMK A01 T01251027  RH  035%=      5-min Rain = 0
KSW1 201926Z 20014KT 13/M03 A3021 RMK A01 T01251026  RH  035%=      5-min Rain = 0
KSW1 201927Z 21013G19KT 13/M03 A3021 RMK A01 T01251025  RH  035%=      5-min Rain = 0
KSW1 201928Z 19014KT 13/M02 A3021 RMK A01 T01271024  RH  035%=      5-min Rain = 0
KSW1 201929Z 19014KT 13/M03 A3021 RMK A01 T01291025  RH  034%=      5-min Rain = 0
KSW1 201930Z 18015KT 13/M03 A3021 RMK A01 T01281026  RH  034%=      5-min Rain = 0
KSW1 201931Z 18015KT 13/M03 A302 RMK A01 T01281025  RH  034%=      5-min Rain = 0
KSW1 201932Z 19015KT 13/M03 A302 RMK A01 T01281026  RH  034%=      5-min Rain = 0
KSW1 201933Z 19015KT 13/M03 A302 RMK A01 T01291025  RH  034%=      5-min Rain = 0
KSW1 201934Z 20012KT 13/M03 A302 RMK A01 T01291026  RH  034%=      5-min Rain = 0
KSW1 201935Z 20010KT 13/M02 A302 RMK A01 T01271023  RH  035%=      5-min Rain = 0
KSW1 201936Z 18012KT 13/M02 A302 RMK A01 T01291023  RH  035%=      5-min Rain = 0
KSW1 201937Z 19010KT 13/M02 A302 RMK A01 T01311021  RH  035%=      5-min Rain = 0
KSW1 201938Z 20013KT 13/M02 A302 RMK A01 T01321023  RH  034%=      5-min Rain = 0
KSW1 201939Z 21010KT 13/M02 A302 RMK A01 T01301024  RH  034%=      5-min Rain = 0
KSW1 201940Z 19011KT 13/M02 A302 RMK A01 T01291021  RH  035%=      5-min Rain = 0
KSW1 201941Z 18013KT 13/M02 A3019 RMK A01 T01301022  RH  035%=      5-min Rain = 0
KSW1 201942Z 19012KT 13/M02 A3019 RMK A01 T01301022  RH  035%=      5-min Rain = 0
KSW1 201943Z 20012KT 13/M02 A3019 RMK A01 T01311021  RH  035%=      5-min Rain = 0
KSW1 201944Z 20013G18KT 13/M02 A3019 RMK A01 T01321021  RH  035%=      5-min Rain = 0
KSW1 201945Z 20012KT 13/M02 A3019 RMK A01 T01301023  RH  034%=      5-min Rain = 0
KSW1 201946Z 20012KT 13/M02 A3019 RMK A01 T01291022  RH  035%=      5-min Rain = 0
KSW1 201947Z 20010KT 13/M02 A3019 RMK A01 T01291021  RH  035%=      5-min Rain = 0
KSW1 201948Z 18010KT 13/M02 A3019 RMK A01 T01321019  RH  035%=      5-min Rain = 0
KSW1 201949Z 19014KT 13/M02 A3019 RMK A01 T01341020  RH  034%=      5-min Rain = 0
KSW1 201950Z 18013KT 13/M02 A3019 RMK A01 T01331022  RH  034%=      5-min Rain = 0
KSW1 201951Z 18015KT 13/M02 A3019 RMK A01 T01321021  RH  034%=      5-min Rain = 0
KSW1 201952Z 19012KT 13/M02 A3019 RMK A01 T01321023  RH  034%=      5-min Rain = 0
KSW1 201953Z 19013KT 13/M02 A3019 RMK A01 T01311021  RH  035%=      5-min Rain = 0
KSW1 201954Z 19011KT 13/M02 A3019 RMK A01 T01321022  RH  034%=      5-min Rain = 0
KSW1 201955Z 19011KT 13/M02 A3018 RMK A01 T01321019  RH  035%=      5-min Rain = 0
KSW1 201956Z 19014KT 14/M02 A3018 RMK A01 T01361018  RH  034%=      5-min Rain = 0
KSW1 201957Z 19014KT 14/M02 A3018 RMK A01 T01361022  RH  033%=      5-min Rain = 0
KSW1 201958Z 19012KT 13/M02 A3018 RMK A01 T01311024  RH  034%=      5-min Rain = 0
KSW1 201959Z 18014KT 13/M02 A3018 RMK A01 T01301021  RH  035%=      5-min Rain = 0
KSW1 202000Z 18013KT 13/M02 A3018 RMK A01 T01301023  RH  035%=      5-min Rain = 0
KSW1 202001Z 18013KT 13/M02 A3018 RMK A01 T01321020  RH  035%=      5-min Rain = 0
KSW1 202002Z 19011KT 13/M02 A3018 RMK A01 T01321022  RH  034%=      5-min Rain = 0
KSW1 202003Z 19012KT 13/M02 A3018 RMK A01 T01311021  RH  035%=      5-min Rain = 0
KSW1 202004Z 19009KT 13/M02 A3018 RMK A01 T01311019  RH  035%=      5-min Rain = 0
KSW1 202005Z 18011KT 13/M02 A3018 RMK A01 T01331018  RH  035%=      5-min Rain = 0
KSW1 202006Z 18011KT 13/M02 A3017 RMK A01 T01331020  RH  034%=      5-min Rain = 0
KSW1 202007Z 19012KT 14/M02 A3017 RMK A01 T01351018  RH  034%=      5-min Rain = 0
KSW1 202008Z 20013KT 14/M02 A3017 RMK A01 T01371019  RH  034%=      5-min Rain = 0
KSW1 202009Z 20012KT 14/M02 A3017 RMK A01 T01371020  RH  034%=      5-min Rain = 0
KSW1 202010Z 19013KT 14/M02 A3017 RMK A01 T01361020  RH  034%=      5-min Rain = 0
KSW1 202011Z 18013KT 14/M02 A3017 RMK A01 T01361018  RH  034%=      5-min Rain = 0
KSW1 202012Z 18016KT 14/M02 A3017 RMK A01 T01361020  RH  034%=      5-min Rain = 0
KSW1 202013Z 17015KT 13/M02 A3016 RMK A01 T01341022  RH  034%=      5-min Rain = 0
KSW1 202014Z 18012KT 13/M02 A3016 RMK A01 T01331020  RH  035%=      5-min Rain = 0
KSW1 202015Z 17014KT 14/M02 A3016 RMK A01 T01361017  RH  035%=      5-min Rain = 0
KSW1 202016Z 18012KT 14/M02 A3016 RMK A01 T01401015  RH  034%=      5-min Rain = 0
KSW1 202017Z 18010KT 14/M01 A3016 RMK A01 T01441013  RH  034%=      5-min Rain = 0
KSW1 202018Z 19013KT 15/M02 A3016 RMK A01 T01451016  RH  033%=      5-min Rain = 0
KSW1 202019Z 18012KT 14/M02 A3016 RMK A01 T01441018  RH  033%=      5-min Rain = 0
KSW1 202020Z 18014KT 14/M02 A3016 RMK A01 T01421018  RH  033%=      5-min Rain = 0
KSW1 202021Z 20011KT 14/M02 A3016 RMK A01 T01401020  RH  033%=      5-min Rain = 0
KSW1 202022Z 19011G17KT 14/M02 A3016 RMK A01 T01381018  RH  034%=      5-min Rain = 0
KSW1 202023Z 18015KT 14/M02 A3016 RMK A01 T01371019  RH  034%=      5-min Rain = 0
KSW1 202024Z 18013KT 14/M02 A3016 RMK A01 T01361019  RH  034%=      5-min Rain = 0
KSW1 202025Z 18009G14KT 14/M02 A3016 RMK A01 T01351017  RH  035%=      5-min Rain = 0
KSW1 202026Z 18011KT 14/M02 A3016 RMK A01 T01361015  RH  035%=      5-min Rain = 0
KSW1 202027Z 19012KT 14/M02 A3016 RMK A01 T01371017  RH  034%=      5-min Rain = 0
KSW1 202028Z 18011KT 14/M02 A3016 RMK A01 T01361017  RH  034%=      5-min Rain = 0
KSW1 202029Z 18011KT 14/M02 A3016 RMK A01 T01361017  RH  035%=      5-min Rain = 0
KSW1 202030Z 18011KT 14/M02 A3016 RMK A01 T01351016  RH  035%=      5-min Rain = 0
KSW1 202031Z 18011KT 14/M02 A3016 RMK A01 T01361016  RH  035%=      5-min Rain = 0
KSW1 202032Z 19014KT 14/M02 A3016 RMK A01 T01371015  RH  035%=      5-min Rain = 0
KSW1 202033Z 20013KT 14/M02 A3016 RMK A01 T01381019  RH  034%=      5-min Rain = 0
KSW1 202034Z 20011KT 14/M02 A3016 RMK A01 T01391019  RH  034%=      5-min Rain = 0
KSW1 202035Z 19010KT 14/M02 A3016 RMK A01 T01391015  RH  034%=      5-min Rain = 0
KSW1 202036Z 18011KT 14/M01 A3016 RMK A01 T01431012  RH  034%=      5-min Rain = 0
KSW1 202037Z 19014KT 14/M02 A3016 RMK A01 T01441015  RH  033%=      5-min Rain = 0
KSW1 202038Z 20013KT 14/M02 A3016 RMK A01 T01411020  RH  033%=      5-min Rain = 0
KSW1 202039Z 20012KT 14/M02 A3016 RMK A01 T01371019  RH  034%=      5-min Rain = 0
KSW1 202040Z 19012KT 14/M02 A3016 RMK A01 T01371016  RH  035%=      5-min Rain = 0
KSW1 202041Z 19013KT 14/M01 A3016 RMK A01 T01371014  RH  035%=      5-min Rain = 0
KSW1 202042Z 19012KT 14/M01 A3016 RMK A01 T01381014  RH  035%=      5-min Rain = 0
KSW1 202043Z 19013KT 14/M01 A3016 RMK A01 T01381013  RH  035%=      5-min Rain = 0
KSW1 202044Z 17012KT 14/M01 A3016 RMK A01 T01391013  RH  035%=      5-min Rain = 0
KSW1 202045Z 18012KT 14/M01 A3016 RMK A01 T01401012  RH  035%=      5-min Rain = 0
KSW1 202046Z 19011KT 14/M01 A3016 RMK A01 T01411014  RH  034%=      5-min Rain = 0
KSW1 202047Z 19011KT 14/M01 A3016 RMK A01 T01421010  RH  035%=      5-min Rain = 0
KSW1 202048Z 18013KT 14/M01 A3016 RMK A01 T01441012  RH  034%=      5-min Rain = 0
KSW1 202049Z 18012KT 15/M01 A3016 RMK A01 T01451008  RH  035%=      5-min Rain = 0
KSW1 202050Z 17014KT 15/M01 A3016 RMK A01 T01461011  RH  034%=      5-min Rain = 0
KSW1 202051Z 19012KT 14/M01 A3016 RMK A01 T01441011  RH  035%=      5-min Rain = 0
KSW1 202052Z 18012KT 14/M01 A3016 RMK A01 T01421010  RH  035%=      5-min Rain = 0
KSW1 202053Z 19013KT 14/M01 A3016 RMK A01 T01431011  RH  035%=      5-min Rain = 0
KSW1 202054Z 19013KT 14/M01 A3016 RMK A01 T01431011  RH  035%=      5-min Rain = 0
KSW1 202055Z 18013KT 14/M01 A3016 RMK A01 T01411012  RH  035%=      5-min Rain = 0
KSW1 202056Z 17012KT 14/M01 A3016 RMK A01 T01411010  RH  035%=      5-min Rain = 0
KSW1 202057Z 17012KT 14/M01 A3016 RMK A01 T01411010  RH  035%=      5-min Rain = 0
KSW1 202058Z 18013KT 14/M01 A3016 RMK A01 T01411009  RH  035%=      5-min Rain = 0
KSW1 202059Z 17012KT 14/M01 A3016 RMK A01 T01401011  RH  035%=      5-min Rain = 0
KSW1 202100Z 17013KT 14/M01 A3016 RMK A01 T01391010  RH  036%=      5-min Rain = 0
KSW1 202101Z 17013KT 14/M01 A3015 RMK A01 T01391009  RH  036%=      5-min Rain = 0
KSW1 202102Z 16012KT 14/M01 A3015 RMK A01 T01401008  RH  036%=      5-min Rain = 0
KSW1 202103Z 17014KT 14/M01 A3015 RMK A01 T01411008  RH  036%=      5-min Rain = 0
KSW1 202104Z 16012KT 14/M01 A3015 RMK A01 T01411008  RH  036%=      5-min Rain = 0
KSW1 202105Z 17012KT 14/M01 A3015 RMK A01 T01411008  RH  036%=      5-min Rain = 0
KSW1 202106Z 18012KT 14/M01 A3015 RMK A01 T01421007  RH  036%=      5-min Rain = 0
KSW1 202107Z 17012KT 14/M01 A3015 RMK A01 T01441005  RH  036%=      5-min Rain = 0
KSW1 202108Z 17012KT 14/M01 A3015 RMK A01 T01441008  RH  035%=      5-min Rain = 0
KSW1 202109Z 18011KT 14/M01 A3015 RMK A01 T01421009  RH  035%=      5-min Rain = 0
KSW1 202110Z 17011KT 14/M01 A3015 RMK A01 T01421008  RH  036%=      5-min Rain = 0
KSW1 202111Z 18011KT 14/M01 A3015 RMK A01 T01431006  RH  036%=      5-min Rain = 0
KSW1 202112Z 17010KT 15/M01 A3015 RMK A01 T01451006  RH  035%=      5-min Rain = 0
KSW1 202113Z 16011KT 15/M01 A3015 RMK A01 T01461005  RH  035%=      5-min Rain = 0
KSW1 202114Z 17014KT 15/M01 A3015 RMK A01 T01461007  RH  035%=      5-min Rain = 0
KSW1 202115Z 17010KT 15/M01 A3015 RMK A01 T01451006  RH  035%=      5-min Rain = 0
KSW1 202116Z 19012KT 15/M01 A3015 RMK A01 T01451006  RH  035%=      5-min Rain = 0
KSW1 202117Z 20011KT 15/M01 A3015 RMK A01 T01461008  RH  035%=      5-min Rain = 0
KSW1 202118Z 18012KT 15/M01 A3015 RMK A01 T01451007  RH  035%=      5-min Rain = 0
KSW1 202119Z 18013KT 15/M01 A3015 RMK A01 T01451006  RH  035%=      5-min Rain = 0
KSW1 202120Z 18014KT 15/M01 A3015 RMK A01 T01461008  RH  035%=      5-min Rain = 0
KSW1 202121Z 18011KT 15/M01 A3015 RMK A01 T01451007  RH  035%=      5-min Rain = 0
KSW1 202122Z 18013KT 15/M01 A3015 RMK A01 T01451006  RH  035%=      5-min Rain = 0
KSW1 202123Z 18012KT 15/M01 A3015 RMK A01 T01451007  RH  035%=      5-min Rain = 0
KSW1 202124Z 19013KT 15/M01 A3015 RMK A01 T01451006  RH  035%=      5-min Rain = 0
KSW1 202125Z 18013KT 15/M01 A3014 RMK A01 T01461007  RH  035%=      5-min Rain = 0
KSW1 202126Z 18012KT 15/M01 A3014 RMK A01 T01471006  RH  035%=      5-min Rain = 0
KSW1 202127Z 19013KT 15/M01 A3015 RMK A01 T01491006  RH  034%=      5-min Rain = 0
KSW1 202128Z 19014KT 15/M01 A3014 RMK A01 T01511008  RH  034%=      5-min Rain = 0
KSW1 202129Z 19014KT 15/M01 A3014 RMK A01 T01501010  RH  033%=      5-min Rain = 0
KSW1 202130Z 18013KT 15/M01 A3014 RMK A01 T01501010  RH  033%=      5-min Rain = 0
KSW1 202131Z 18013KT 15/M01 A3014 RMK A01 T01501007  RH  034%=      5-min Rain = 0
KSW1 202132Z 18012KT 15/M01 A3014 RMK A01 T01501008  RH  034%=      5-min Rain = 0
KSW1 202133Z 17011KT 15/M00 A3014 RMK A01 T01511004  RH  035%=      5-min Rain = 0
KSW1 202134Z 16010KT 15/M00 A3014 RMK A01 T01521002  RH  035%=      5-min Rain = 0
KSW1 202135Z 17011KT 15/M00 A3014 RMK A01 T01541003  RH  034%=      5-min Rain = 0
KSW1 202136Z 17010KT 15/M00 A3014 RMK A01 T01541002  RH  034%=      5-min Rain = 0
KSW1 202137Z 18015KT 16/M00 A3014 RMK A01 T01551004  RH  034%=      5-min Rain = 0
KSW1 202138Z 19013KT 16/M01 A3014 RMK A01 T01561005  RH  033%=      5-min Rain = 0
KSW1 202139Z 18012KT 16/M01 A3014 RMK A01 T01571005  RH  033%=      5-min Rain = 0
KSW1 202140Z 17014KT 16/M01 A3014 RMK A01 T01571005  RH  033%=      5-min Rain = 0
KSW1 202141Z 16014KT 16/M01 A3014 RMK A01 T01551006  RH  033%=      5-min Rain = 0
KSW1 202142Z 17012KT 15/M00 A3014 RMK A01 T01541004  RH  034%=      5-min Rain = 0
KSW1 202143Z 17013KT 15/M01 A3014 RMK A01 T01541006  RH  033%=      5-min Rain = 0
KSW1 202144Z 18012KT 15/M01 A3014 RMK A01 T01531007  RH  033%=      5-min Rain = 0
KSW1 202145Z 18011KT 15/M01 A3014 RMK A01 T01521006  RH  034%=      5-min Rain = 0
KSW1 202146Z 18012KT 15/M01 A3014 RMK A01 T01531005  RH  034%=      5-min Rain = 0
KSW1 202147Z 17014KT 15/M01 A3014 RMK A01 T01541005  RH  034%=      5-min Rain = 0
KSW1 202148Z 17011KT 16/M01 A3014 RMK A01 T01551005  RH  034%=      5-min Rain = 0
KSW1 202149Z 17013KT 15/M01 A3014 RMK A01 T01541006  RH  033%=      5-min Rain = 0
KSW1 202150Z 18013KT 15/M01 A3014 RMK A01 T01541007  RH  033%=      5-min Rain = 0
KSW1 202151Z 17010KT 15/M00 A3014 RMK A01 T01541003  RH  034%=      5-min Rain = 0
KSW1 202152Z 17013KT 16/M00 A3014 RMK A01 T01561002  RH  034%=      5-min Rain = 0
KSW1 202153Z 18015KT 16/M01 A3014 RMK A01 T01551006  RH  033%=      5-min Rain = 0
KSW1 202154Z 17014KT 15/M01 A3014 RMK A01 T01531008  RH  033%=      5-min Rain = 0
KSW1 202155Z 17013KT 15/M01 A3014 RMK A01 T01521006  RH  034%=      5-min Rain = 0
KSW1 202156Z 17014KT 15/M00 A3013 RMK A01 T01521003  RH  035%=      5-min Rain = 0
KSW1 202157Z 17015KT 15/M01 A3013 RMK A01 T01541005  RH  034%=      5-min Rain = 0
KSW1 202158Z 17014KT 15/M01 A3013 RMK A01 T01541005  RH  034%=      5-min Rain = 0
KSW1 202159Z 16013KT 16/M01 A3013 RMK A01 T01551007  RH  033%=      5-min Rain = 0
KSW1 202200Z 17012G17KT 16/M01 A3013 RMK A01 T01551006  RH  033%=      5-min Rain = 0
KSW1 202201Z 17013KT 16/M01 A3013 RMK A01 T01551006  RH  033%=      5-min Rain = 0
KSW1 202202Z 18013KT 16/M01 A3013 RMK A01 T01561006  RH  033%=      5-min Rain = 0
KSW1 202203Z 19014KT 16/M01 A3013 RMK A01 T01571008  RH  032%=      5-min Rain = 0
KSW1 202204Z 18014KT 16/M01 A3013 RMK A01 T01581008  RH  032%=      5-min Rain = 0
KSW1 202205Z 18015KT 16/M01 A3013 RMK A01 T01591006  RH  032%=      5-min Rain = 0
KSW1 202206Z 17014KT 16/M01 A3013 RMK A01 T01591005  RH  033%=      5-min Rain = 0
KSW1 202207Z 17014KT 16/M00 A3013 RMK A01 T01591004  RH  033%=      5-min Rain = 0
KSW1 202208Z 17015KT 16/M01 A3013 RMK A01 T01601005  RH  032%=      5-min Rain = 0
KSW1 202209Z 17015KT 16/M00 A3013 RMK A01 T01591003  RH  033%=      5-min Rain = 0
KSW1 202210Z 17015KT 16/M00 A3013 RMK A01 T01591004  RH  033%=      5-min Rain = 0
KSW1 202211Z 17013KT 16/M00 A3013 RMK A01 T01581003  RH  033%=      5-min Rain = 0
KSW1 202212Z 18014KT 16/M00 A3013 RMK A01 T01581003  RH  033%=      5-min Rain = 0
KSW1 202213Z 18015KT 16/M01 A3013 RMK A01 T01581005  RH  033%=      5-min Rain = 0
KSW1 202214Z 18015KT 16/M01 A3013 RMK A01 T01581006  RH  033%=      5-min Rain = 0
KSW1 202215Z 18014KT 16/M01 A3013 RMK A01 T01571006  RH  033%=      5-min Rain = 0
KSW1 202216Z 18012KT 16/M00 A3013 RMK A01 T01571004  RH  033%=      5-min Rain = 0
KSW1 202217Z 17012KT 16/M00 A3013 RMK A01 T01581001  RH  034%=      5-min Rain = 0
KSW1 202218Z 18012KT 16/M00 A3013 RMK A01 T01591003  RH  033%=      5-min Rain = 0
KSW1 202219Z 17012KT 16/M00 A3012 RMK A01 T01581002  RH  034%=      5-min Rain = 0
KSW1 202220Z 18013KT 16/M00 A3012 RMK A01 T01581004  RH  033%=      5-min Rain = 0
KSW1 202221Z 18013KT 16/M00 A3012 RMK A01 T01571004  RH  033%=      5-min Rain = 0
KSW1 202222Z 18012KT 16/M01 A3012 RMK A01 T01581006  RH  033%=      5-min Rain = 0
KSW1 202223Z 18014KT 16/M01 A3012 RMK A01 T01581006  RH  033%=      5-min Rain = 0
KSW1 202224Z 18012KT 16/M01 A3012 RMK A01 T01581009  RH  032%=      5-min Rain = 0
KSW1 202225Z 18013KT 16/M01 A3012 RMK A01 T01571007  RH  033%=      5-min Rain = 0
KSW1 202226Z 18013KT 16/M01 A3012 RMK A01 T01571009  RH  032%=      5-min Rain = 0
KSW1 202227Z 18015KT 16/M01 A3012 RMK A01 T01561008  RH  032%=      5-min Rain = 0
KSW1 202228Z 18012KT 16/M01 A3012 RMK A01 T01561008  RH  033%=      5-min Rain = 0
KSW1 202229Z 18015KT 16/M01 A3012 RMK A01 T01561007  RH  033%=      5-min Rain = 0
KSW1 202230Z 19015KT 16/M01 A3012 RMK A01 T01561014  RH  031%=      5-min Rain = 0
KSW1 202231Z 19012KT 16/M01 A3012 RMK A01 T01561013  RH  031%=      5-min Rain = 0
KSW1 202232Z 19010KT 16/M01 A3012 RMK A01 T01561010  RH  032%=      5-min Rain = 0
KSW1 202233Z 18016KT 16/M01 A3012 RMK A01 T01561011  RH  032%=      5-min Rain = 0
KSW1 202234Z 18014KT 16/M01 A3012 RMK A01 T01561013  RH  031%=      5-min Rain = 0
KSW1 202235Z 18013KT 16/M01 A3012 RMK A01 T01561013  RH  032%=      5-min Rain = 0
KSW1 202236Z 19011KT 16/M01 A3012 RMK A01 T01561012  RH  032%=      5-min Rain = 0
KSW1 202237Z 19013KT 16/M01 A3012 RMK A01 T01571011  RH  032%=      5-min Rain = 0
KSW1 202238Z 19013KT 16/M01 A3012 RMK A01 T01571012  RH  031%=      5-min Rain = 0
KSW1 202239Z 19014KT 16/M01 A3012 RMK A01 T01571013  RH  031%=      5-min Rain = 0
KSW1 202240Z 19015KT 16/M01 A3012 RMK A01 T01571011  RH  032%=      5-min Rain = 0
KSW1 202241Z 19016KT 16/M01 A3012 RMK A01 T01571013  RH  031%=      5-min Rain = 0
KSW1 202242Z 19014KT 16/M01 A3012 RMK A01 T01571013  RH  031%=      5-min Rain = 0
KSW1 202243Z 19013KT 16/M01 A3012 RMK A01 T01561013  RH  031%=      5-min Rain = 0
KSW1 202244Z 19013KT 16/M01 A3012 RMK A01 T01561011  RH  032%=      5-min Rain = 0
KSW1 202245Z 19013KT 16/M01 A3012 RMK A01 T01571011  RH  032%=      5-min Rain = 0
KSW1 202246Z 18014KT 16/M01 A3012 RMK A01 T01561013  RH  031%=      5-min Rain = 0
KSW1 202247Z 18014KT 16/M01 A3012 RMK A01 T01561012  RH  032%=      5-min Rain = 0
KSW1 202248Z 18015KT 16/M01 A3012 RMK A01 T01551012  RH  032%=      5-min Rain = 0
KSW1 202249Z 18014KT 16/M01 A3012 RMK A01 T01551013  RH  032%=      5-min Rain = 0
KSW1 202250Z 18013KT 16/M01 A3012 RMK A01 T01551012  RH  032%=      5-min Rain = 0
KSW1 202251Z 18014KT 16/M01 A3012 RMK A01 T01551012  RH  032%=      5-min Rain = 0
KSW1 202252Z 17011KT 15/M01 A3012 RMK A01 T01541012  RH  032%=      5-min Rain = 0
KSW1 202253Z 18013KT 15/M01 A3012 RMK A01 T01541010  RH  032%=      5-min Rain = 0
KSW1 202254Z 17015KT 15/M01 A3012 RMK A01 T01541011  RH  032%=      5-min Rain = 0
KSW1 202255Z 17013KT 15/M01 A3012 RMK A01 T01541012  RH  032%=      5-min Rain = 0
KSW1 202256Z 18012KT 15/M01 A3012 RMK A01 T01531012  RH  032%=      5-min Rain = 0
KSW1 202257Z 18013KT 15/M01 A3012 RMK A01 T01531010  RH  033%=      5-min Rain = 0
KSW1 202258Z 18012KT 15/M01 A3012 RMK A01 T01531010  RH  033%=      5-min Rain = 0
KSW1 202259Z 17012KT 15/M01 A3012 RMK A01 T01521009  RH  033%=      5-min Rain = 0
KSW1 202300Z 17014KT 15/M01 A3012 RMK A01 T01521011  RH  033%=      5-min Rain = 0
KSW1 202301Z 17014KT 15/M01 A3012 RMK A01 T01521011  RH  033%=      5-min Rain = 0
KSW1 202302Z 18013KT 15/M01 A3012 RMK A01 T01521010  RH  033%=      5-min Rain = 0
KSW1 202303Z 18014KT 15/M01 A3012 RMK A01 T01521009  RH  033%=      5-min Rain = 0
KSW1 202304Z 17012KT 15/M01 A3012 RMK A01 T01521009  RH  033%=      5-min Rain = 0
KSW1 202305Z 17013KT 15/M01 A3012 RMK A01 T01521009  RH  033%=      5-min Rain = 0
KSW1 202306Z 17012KT 15/M01 A3012 RMK A01 T01521009  RH  033%=      5-min Rain = 0
KSW1 202307Z 17012KT 15/M01 A3012 RMK A01 T01511008  RH  033%=      5-min Rain = 0
KSW1 202308Z 17011KT 15/M01 A3012 RMK A01 T01511008  RH  034%=      5-min Rain = 0
KSW1 202309Z 17014KT 15/M01 A3012 RMK A01 T01511008  RH  034%=      5-min Rain = 0
KSW1 202310Z 17011KT 15/M01 A3012 RMK A01 T01501007  RH  034%=      5-min Rain = 0
KSW1 202311Z 18011KT 15/M01 A3012 RMK A01 T01501006  RH  034%=      5-min Rain = 0
KSW1 202312Z 17013KT 15/M01 A3012 RMK A01 T01491007  RH  034%=      5-min Rain = 0
KSW1 202313Z 18012KT 15/M01 A3012 RMK A01 T01491007  RH  035%=      5-min Rain = 0
KSW1 202314Z 17011KT 15/M01 A3012 RMK A01 T01481007  RH  034%=      5-min Rain = 0
KSW1 202315Z 17010KT 15/M01 A3012 RMK A01 T01481006  RH  035%=      5-min Rain = 0
KSW1 202316Z 17013KT 15/M01 A3011 RMK A01 T01471006  RH  035%=      5-min Rain = 0
KSW1 202317Z 17012KT 15/M01 A3011 RMK A01 T01461007  RH  035%=      5-min Rain = 0
KSW1 202318Z 17013KT 15/M01 A3011 RMK A01 T01451007  RH  035%=      5-min Rain = 0
KSW1 202319Z 18010KT 14/M01 A3011 RMK A01 T01441008  RH  035%=      5-min Rain = 0
KSW1 202320Z 18012KT 14/M01 A3012 RMK A01 T01441007  RH  036%=      5-min Rain = 0
KSW1 202321Z 18011KT 14/M01 A3012 RMK A01 T01431008  RH  035%=      5-min Rain = 0
KSW1 202322Z 18010KT 14/M01 A3012 RMK A01 T01421007  RH  036%=      5-min Rain = 0
KSW1 202323Z 18011KT 14/M01 A3012 RMK A01 T01411007  RH  036%=      5-min Rain = 0
KSW1 202324Z 18011KT 14/M01 A3011 RMK A01 T01401009  RH  036%=      5-min Rain = 0
KSW1 202325Z 18011KT 14/M01 A3011 RMK A01 T01411008  RH  036%=      5-min Rain = 0
KSW1 202326Z 18010KT 14/M01 A3011 RMK A01 T01411007  RH  036%=      5-min Rain = 0
KSW1 202327Z 18010KT 14/M01 A3012 RMK A01 T01401006  RH  037%=      5-min Rain = 0
KSW1 202328Z 17009KT 14/M01 A3011 RMK A01 T01391007  RH  037%=      5-min Rain = 0
KSW1 202329Z 18009KT 14/M01 A3012 RMK A01 T01391006  RH  037%=      5-min Rain = 0
KSW1 202330Z 18008KT 14/M01 A3011 RMK A01 T01381006  RH  037%=      5-min Rain = 0
KSW1 202331Z 18011KT 14/M01 A3011 RMK A01 T01381006  RH  037%=      5-min Rain = 0
KSW1 202332Z 18010KT 14/M01 A3011 RMK A01 T01381006  RH  037%=      5-min Rain = 0
KSW1 202333Z 18009KT 14/M01 A3011 RMK A01 T01391006  RH  037%=      5-min Rain = 0
KSW1 202334Z 18010KT 14/M01 A3011 RMK A01 T01391005  RH  037%=      5-min Rain = 0
KSW1 202335Z 18009KT 14/M01 A3011 RMK A01 T01391005  RH  037%=      5-min Rain = 0
KSW1 202336Z 18009KT 14/M00 A3011 RMK A01 T01381004  RH  038%=      5-min Rain = 0
KSW1 202337Z 18009KT 14/M00 A3011 RMK A01 T01371004  RH  038%=      5-min Rain = 0
KSW1 202338Z 18009KT 14/M00 A3011 RMK A01 T01351004  RH  038%=      5-min Rain = 0
KSW1 202339Z 18008KT 13/M00 A3011 RMK A01 T01341004  RH  039%=      5-min Rain = 0
KSW1 202340Z 18009KT 13/M00 A3011 RMK A01 T01331004  RH  039%=      5-min Rain = 0
KSW1 202341Z 18009KT 13/M00 A3011 RMK A01 T01321004  RH  039%=      5-min Rain = 0
KSW1 202342Z 18009KT 13/M00 A3011 RMK A01 T01311003  RH  040%=      5-min Rain = 0
KSW1 202343Z 18009KT 13/M00 A3011 RMK A01 T01301004  RH  040%=      5-min Rain = 0
KSW1 202344Z 18009KT 13/M00 A3011 RMK A01 T01291004  RH  040%=      5-min Rain = 0
KSW1 202345Z 18009KT 13/M00 A3011 RMK A01 T01291003  RH  040%=      5-min Rain = 0
KSW1 202346Z 18009KT 13/M00 A3011 RMK A01 T01281004  RH  040%=      5-min Rain = 0
KSW1 202347Z 18009KT 13/M00 A3011 RMK A01 T01271004  RH  040%=      5-min Rain = 0
KSW1 202348Z 18009KT 13/M01 A3011 RMK A01 T01281005  RH  040%=      5-min Rain = 0
KSW1 202349Z 19009KT 13/M00 A3011 RMK A01 T01281004  RH  040%=      5-min Rain = 0
KSW1 202350Z 18009KT 13/M00 A3011 RMK A01 T01271004  RH  040%=      5-min Rain = 0
KSW1 202351Z 18009KT 13/M00 A3011 RMK A01 T01261004  RH  041%=      5-min Rain = 0
KSW1 202352Z 18009KT 13/M00 A3011 RMK A01 T01251004  RH  041%=      5-min Rain = 0
KSW1 202353Z 18010KT 12/M00 A3011 RMK A01 T01241004  RH  041%=      5-min Rain = 0
KSW1 202354Z 18009KT 12/M00 A3011 RMK A01 T01231004  RH  041%=      5-min Rain = 0
KSW1 202355Z 18009KT 12/M00 A3011 RMK A01 T01221004  RH  042%=      5-min Rain = 0
KSW1 202356Z 18010KT 12/M01 A3011 RMK A01 T01211005  RH  042%=      5-min Rain = 0
KSW1 202357Z 18010KT 12/M01 A301 RMK A01 T01201005  RH  042%=      5-min Rain = 0
KSW1 202358Z 18009KT 12/M01 A301 RMK A01 T01191005  RH  042%=      5-min Rain = 0
KSW1 202359Z 18009KT 12/M01 A301 RMK A01 T01181005  RH  043%=      5-min Rain = 0
KSW1 210000Z 18010KT 12/M01 A3011 RMK A01 T01181005  RH  043%=      5-min Rain = 0
KSW1 210001Z 18009KT 12/M01 A3011 RMK A01 T01181005  RH  043%=      5-min Rain = 0
KSW1 210002Z 18009KT 12/M01 A3011 RMK A01 T01171005  RH  043%=      5-min Rain = 0
KSW1 210003Z 18009KT 12/M01 A3011 RMK A01 T01161005  RH  043%=      5-min Rain = 0
KSW1 210004Z 18009KT 12/M01 A3011 RMK A01 T01151005  RH  043%=      5-min Rain = 0
KSW1 210005Z 18009KT 12/M01 A3011 RMK A01 T01151005  RH  043%=      5-min Rain = 0
KSW1 210006Z 18009KT 12/M01 A3011 RMK A01 T01151005  RH  043%=      5-min Rain = 0
KSW1 210007Z 18009KT 11/M01 A3011 RMK A01 T01141005  RH  044%=      5-min Rain = 0
KSW1 210008Z 18009KT 11/M01 A3011 RMK A01 T01141006  RH  044%=      5-min Rain = 0
KSW1 210009Z 18008KT 11/M01 A3011 RMK A01 T01131006  RH  044%=      5-min Rain = 0
KSW1 210010Z 18009KT 11/M01 A3011 RMK A01 T01131006  RH  044%=      5-min Rain = 0
KSW1 210011Z 18008KT 11/M01 A3011 RMK A01 T01131006  RH  044%=      5-min Rain = 0
KSW1 210012Z 18008KT 11/M01 A3011 RMK A01 T01121006  RH  044%=      5-min Rain = 0
KSW1 210013Z 18008KT 11/M01 A3011 RMK A01 T01121006  RH  044%=      5-min Rain = 0
KSW1 210014Z 18008KT 11/M01 A3011 RMK A01 T01121006  RH  044%=      5-min Rain = 0
KSW1 210015Z 18008KT 11/M01 A3011 RMK A01 T01111006  RH  044%=      5-min Rain = 0
KSW1 210016Z 18008KT 11/M01 A3011 RMK A01 T01111006  RH  044%=      5-min Rain = 0
KSW1 210017Z 18008KT 11/M01 A3011 RMK A01 T01101006  RH  044%=      5-min Rain = 0
KSW1 210018Z 18008KT 11/M01 A3011 RMK A01 T01091006  RH  045%=      5-min Rain = 0
KSW1 210019Z 18008KT 11/M01 A3011 RMK A01 T01091006  RH  045%=      5-min Rain = 0
KSW1 210020Z 18008KT 11/M01 A3011 RMK A01 T01081006  RH  045%=      5-min Rain = 0
KSW1 210021Z 18008KT 11/M01 A3011 RMK A01 T01071006  RH  045%=      5-min Rain = 0
KSW1 210022Z 18008KT 11/M01 A3011 RMK A01 T01071006  RH  046%=      5-min Rain = 0
KSW1 210023Z 18007KT 11/M01 A3011 RMK A01 T01061006  RH  046%=      5-min Rain = 0
KSW1 210024Z 18007KT 11/M01 A3011 RMK A01 T01051006  RH  046%=      5-min Rain = 0
KSW1 210025Z 18008KT 10/M01 A3011 RMK A01 T01041006  RH  046%=      5-min Rain = 0
KSW1 210026Z 18008KT 10/M01 A3011 RMK A01 T01031006  RH  047%=      5-min Rain = 0
KSW1 210027Z 18008KT 10/M01 A3011 RMK A01 T01021006  RH  047%=      5-min Rain = 0
KSW1 210028Z 18008KT 10/M01 A3011 RMK A01 T01021006  RH  047%=      5-min Rain = 0
KSW1 210029Z 18008KT 10/M01 A3011 RMK A01 T01021006  RH  047%=      5-min Rain = 0
KSW1 210030Z 18008KT 10/M01 A3011 RMK A01 T01011006  RH  047%=      5-min Rain = 0
KSW1 210031Z 18008KT 10/M01 A3011 RMK A01 T01001006  RH  048%=      5-min Rain = 0
KSW1 210032Z 18009KT 10/M01 A3011 RMK A01 T01011006  RH  048%=      5-min Rain = 0
KSW1 210033Z 18008KT 10/M01 A3011 RMK A01 T01001005  RH  048%=      5-min Rain = 0
KSW1 210034Z 18009KT 10/M01 A3011 RMK A01 T01001005  RH  048%=      5-min Rain = 0
KSW1 210035Z 18009KT 10/M01 A3011 RMK A01 T01001005  RH  048%=      5-min Rain = 0
KSW1 210036Z 19009KT 10/M01 A3011 RMK A01 T01001006  RH  048%=      5-min Rain = 0
KSW1 210037Z 18009KT 10/M01 A3011 RMK A01 T01001006  RH  048%=      5-min Rain = 0
KSW1 210038Z 18009KT 10/M01 A3011 RMK A01 T01001006  RH  048%=      5-min Rain = 0
KSW1 210039Z 18009KT 10/M01 A3011 RMK A01 T01001006  RH  048%=      5-min Rain = 0
KSW1 210040Z 18009KT 10/M01 A3011 RMK A01 T01011006  RH  048%=      5-min Rain = 0
KSW1 210041Z 18009KT 10/M01 A3011 RMK A01 T01001006  RH  048%=      5-min Rain = 0
KSW1 210042Z 18009KT 10/M01 A3011 RMK A01 T01011005  RH  048%=      5-min Rain = 0
KSW1 210043Z 18008KT 10/M01 A3011 RMK A01 T01001005  RH  048%=      5-min Rain = 0
KSW1 210044Z 18008KT 10/M01 A3011 RMK A01 T00991005  RH  048%=      5-min Rain = 0
KSW1 210045Z 18008KT 10/M01 A3011 RMK A01 T00981006  RH  048%=      5-min Rain = 0
KSW1 210046Z 18009KT 10/M01 A3012 RMK A01 T00971005  RH  049%=      5-min Rain = 0
KSW1 210047Z 18009KT 10/M01 A3012 RMK A01 T00971005  RH  049%=      5-min Rain = 0
KSW1 210048Z 18009KT 10/M01 A3012 RMK A01 T00981005  RH  049%=      5-min Rain = 0
KSW1 210049Z 18009KT 10/M01 A3011 RMK A01 T00991005  RH  048%=      5-min Rain = 0
KSW1 210050Z 18009KT 10/M01 A3011 RMK A01 T01011005  RH  048%=      5-min Rain = 0
KSW1 210051Z 17009KT 10/M01 A3011 RMK A01 T01021005  RH  048%=      5-min Rain = 0
KSW1 210052Z 17009KT 10/M01 A3011 RMK A01 T01021005  RH  048%=      5-min Rain = 0
KSW1 210053Z 18009KT 10/M00 A3011 RMK A01 T01021004  RH  047%=      5-min Rain = 0
KSW1 210054Z 17009KT 10/M00 A3011 RMK A01 T01031004  RH  047%=      5-min Rain = 0
KSW1 210055Z 17009KT 10/M00 A3012 RMK A01 T01031004  RH  047%=      5-min Rain = 0
KSW1 210056Z 18009KT 10/M00 A3011 RMK A01 T01041004  RH  047%=      5-min Rain = 0
KSW1 210057Z 18010KT 10/M00 A3011 RMK A01 T01041004  RH  047%=      5-min Rain = 0
KSW1 210058Z 18010KT 11/M00 A3011 RMK A01 T01051004  RH  047%=      5-min Rain = 0
KSW1 210059Z 18010KT 11/M00 A3011 RMK A01 T01051003  RH  047%=      5-min Rain = 0
KSW1 210100Z 18010KT 11/M00 A3011 RMK A01 T01051003  RH  047%=      5-min Rain = 0
KSW1 210101Z 17010KT 11/M00 A3011 RMK A01 T01051004  RH  047%=      5-min Rain = 0
KSW1 210102Z 17010KT 11/M00 A3011 RMK A01 T01051004  RH  047%=      5-min Rain = 0
KSW1 210103Z 17010KT 11/M00 A3011 RMK A01 T01061003  RH  047%=      5-min Rain = 0
KSW1 210104Z 17010KT 11/M00 A3011 RMK A01 T01061002  RH  047%=      5-min Rain = 0
KSW1 210105Z 17011KT 11/M00 A3011 RMK A01 T01061003  RH  047%=      5-min Rain = 0
KSW1 210106Z 17011KT 11/M00 A3011 RMK A01 T01061003  RH  047%=      5-min Rain = 0
KSW1 210107Z 18010KT 11/M00 A3011 RMK A01 T01061003  RH  047%=      5-min Rain = 0
KSW1 210108Z 17010KT 11/M00 A3011 RMK A01 T01071003  RH  047%=      5-min Rain = 0
KSW1 210109Z 17011KT 11/M00 A3011 RMK A01 T01071003  RH  047%=      5-min Rain = 0
KSW1 210110Z 17011KT 11/M00 A3011 RMK A01 T01071003  RH  046%=      5-min Rain = 0
KSW1 210111Z 17011KT 11/M00 A3011 RMK A01 T01071003  RH  046%=      5-min Rain = 0
KSW1 210112Z 18011KT 11/M00 A3011 RMK A01 T01081004  RH  046%=      5-min Rain = 0
KSW1 210113Z 17011KT 11/M00 A3011 RMK A01 T01091004  RH  046%=      5-min Rain = 0
KSW1 210114Z 18012KT 11/M00 A3011 RMK A01 T01091003  RH  046%=      5-min Rain = 0
KSW1 210115Z 17011KT 11/M00 A3011 RMK A01 T01091003  RH  046%=      5-min Rain = 0
KSW1 210116Z 17011KT 11/M00 A3011 RMK A01 T01081004  RH  046%=      5-min Rain = 0
KSW1 210117Z 17011KT 11/M00 A3011 RMK A01 T01081003  RH  046%=      5-min Rain = 0
KSW1 210118Z 18011KT 11/M00 A3011 RMK A01 T01071004  RH  046%=      5-min Rain = 0
KSW1 210119Z 18011KT 11/M00 A3011 RMK A01 T01071004  RH  046%=      5-min Rain = 0
KSW1 210120Z 18011KT 11/M00 A3011 RMK A01 T01071004  RH  046%=      5-min Rain = 0
KSW1 210121Z 18011KT 11/M00 A3011 RMK A01 T01071004  RH  046%=      5-min Rain = 0
KSW1 210122Z 18011KT 11/M00 A3011 RMK A01 T01071004  RH  046%=      5-min Rain = 0
KSW1 210123Z 18011KT 11/M00 A3011 RMK A01 T01061004  RH  046%=      5-min Rain = 0
KSW1 210124Z 18011KT 11/M00 A3011 RMK A01 T01061004  RH  046%=      5-min Rain = 0
KSW1 210125Z 18011KT 11/M01 A3011 RMK A01 T01051005  RH  046%=      5-min Rain = 0
KSW1 210126Z 18011KT 11/M01 A3011 RMK A01 T01061005  RH  046%=      5-min Rain = 0
KSW1 210127Z 18011KT 11/M01 A3011 RMK A01 T01061005  RH  046%=      5-min Rain = 0
KSW1 210128Z 18011KT 11/M01 A3011 RMK A01 T01061005  RH  046%=      5-min Rain = 0
KSW1 210129Z 18011KT 11/M01 A3011 RMK A01 T01061005  RH  046%=      5-min Rain = 0
KSW1 210130Z 18011KT 11/M01 A3011 RMK A01 T01051005  RH  046%=      5-min Rain = 0
KSW1 210131Z 18011KT 11/M01 A3011 RMK A01 T01051005  RH  046%=      5-min Rain = 0
KSW1 210132Z 18010KT 11/M01 A3011 RMK A01 T01051005  RH  046%=      5-min Rain = 0
KSW1 210133Z 18011KT 11/M01 A3011 RMK A01 T01051005  RH  046%=      5-min Rain = 0
KSW1 210134Z 18011KT 11/M01 A3011 RMK A01 T01051005  RH  046%=      5-min Rain = 0
KSW1 210135Z 18012KT 11/M01 A3011 RMK A01 T01051006  RH  046%=      5-min Rain = 0
KSW1 210136Z 18011KT 11/M01 A3011 RMK A01 T01061005  RH  046%=      5-min Rain = 0
KSW1 210137Z 18012KT 11/M01 A3011 RMK A01 T01061006  RH  046%=      5-min Rain = 0
KSW1 210138Z 18011KT 11/M01 A3011 RMK A01 T01061006  RH  046%=      5-min Rain = 0
KSW1 210139Z 18011KT 11/M01 A3011 RMK A01 T01061006  RH  046%=      5-min Rain = 0
KSW1 210140Z 18011KT 11/M01 A3011 RMK A01 T01051006  RH  046%=      5-min Rain = 0
KSW1 210141Z 18011KT 11/M01 A3011 RMK A01 T01051006  RH  046%=      5-min Rain = 0
KSW1 210142Z 18011KT 11/M01 A3011 RMK A01 T01051006  RH  046%=      5-min Rain = 0
KSW1 210143Z 18011KT 11/M01 A3011 RMK A01 T01051006  RH  046%=      5-min Rain = 0
KSW1 210144Z 18011KT 11/M01 A3011 RMK A01 T01051006  RH  046%=      5-min Rain = 0
KSW1 210145Z 18011KT 11/M01 A3011 RMK A01 T01051007  RH  046%=      5-min Rain = 0
KSW1 210146Z 18012KT 11/M01 A3011 RMK A01 T01051006  RH  046%=      5-min Rain = 0
KSW1 210147Z 18011KT 11/M01 A301 RMK A01 T01051007  RH  046%=      5-min Rain = 0
KSW1 210148Z 18011KT 11/M01 A301 RMK A01 T01051007  RH  046%=      5-min Rain = 0
KSW1 210149Z 18012KT 10/M01 A301 RMK A01 T01041007  RH  046%=      5-min Rain = 0
KSW1 210150Z 18012KT 10/M01 A301 RMK A01 T01041007  RH  046%=      5-min Rain = 0
KSW1 210151Z 18011KT 10/M01 A301 RMK A01 T01041007  RH  046%=      5-min Rain = 0
KSW1 210152Z 18011KT 10/M01 A301 RMK A01 T01041008  RH  046%=      5-min Rain = 0
KSW1 210153Z 18012KT 10/M01 A301 RMK A01 T01041008  RH  046%=      5-min Rain = 0
KSW1 210154Z 18011KT 10/M01 A301 RMK A01 T01041008  RH  046%=      5-min Rain = 0
KSW1 210155Z 18012KT 10/M01 A301 RMK A01 T01041008  RH  046%=      5-min Rain = 0
KSW1 210156Z 18012KT 10/M01 A301 RMK A01 T01041008  RH  046%=      5-min Rain = 0
KSW1 210157Z 18012KT 10/M01 A301 RMK A01 T01041008  RH  046%=      5-min Rain = 0
KSW1 210158Z 18012KT 10/M01 A301 RMK A01 T01041008  RH  046%=      5-min Rain = 0
KSW1 210159Z 18012KT 10/M01 A301 RMK A01 T01041008  RH  046%=      5-min Rain = 0
KSW1 210200Z 18012KT 10/M01 A301 RMK A01 T01041008  RH  046%=      5-min Rain = 0
KSW1 210201Z 18013KT 10/M01 A301 RMK A01 T01041008  RH  046%=      5-min Rain = 0
KSW1 210202Z 18013KT 10/M01 A301 RMK A01 T01041008  RH  046%=      5-min Rain = 0
KSW1 210203Z 19012KT 10/M01 A301 RMK A01 T01041008  RH  046%=      5-min Rain = 0
KSW1 210204Z 18013KT 10/M01 A301 RMK A01 T01041008  RH  046%=      5-min Rain = 0
KSW1 210205Z 18012KT 10/M01 A301 RMK A01 T01041009  RH  046%=      5-min Rain = 0
KSW1 210206Z 18012KT 10/M01 A301 RMK A01 T01041009  RH  046%=      5-min Rain = 0
KSW1 210207Z 18012KT 10/M01 A301 RMK A01 T01041008  RH  046%=      5-min Rain = 0
KSW1 210208Z 18012KT 10/M01 A301 RMK A01 T01031008  RH  046%=      5-min Rain = 0
KSW1 210209Z 18012KT 10/M01 A301 RMK A01 T01031009  RH  046%=      5-min Rain = 0
KSW1 210210Z 18012KT 10/M01 A301 RMK A01 T01041009  RH  046%=      5-min Rain = 0
KSW1 210211Z 19012KT 10/M01 A301 RMK A01 T01041009  RH  045%=      5-min Rain = 0
KSW1 210212Z 18012KT 10/M01 A301 RMK A01 T01041009  RH  045%=      5-min Rain = 0
KSW1 210213Z 18011KT 10/M01 A301 RMK A01 T01041009  RH  045%=      5-min Rain = 0
KSW1 210214Z 18012KT 10/M01 A301 RMK A01 T01041009  RH  046%=      5-min Rain = 0
KSW1 210215Z 18013KT 10/M01 A301 RMK A01 T01041009  RH  045%=      5-min Rain = 0
KSW1 210216Z 18013KT 10/M01 A301 RMK A01 T01041009  RH  046%=      5-min Rain = 0
KSW1 210217Z 18012KT 10/M01 A301 RMK A01 T01041009  RH  045%=      5-min Rain = 0
KSW1 210218Z 18012KT 10/M01 A301 RMK A01 T01041009  RH  045%=      5-min Rain = 0
KSW1 210219Z 18012KT 10/M01 A301 RMK A01 T01041009  RH  045%=      5-min Rain = 0
KSW1 210220Z 18012KT 10/M01 A301 RMK A01 T01041008  RH  045%=      5-min Rain = 0
KSW1 210221Z 18012KT 10/M01 A301 RMK A01 T01031009  RH  046%=      5-min Rain = 0
KSW1 210222Z 18012KT 10/M01 A301 RMK A01 T01031009  RH  046%=      5-min Rain = 0
KSW1 210223Z 18014KT 10/M01 A301 RMK A01 T01031009  RH  045%=      5-min Rain = 0
KSW1 210224Z 18013KT 10/M01 A301 RMK A01 T01041009  RH  045%=      5-min Rain = 0
KSW1 210225Z 18013KT 10/M01 A301 RMK A01 T01041010  RH  045%=      5-min Rain = 0
KSW1 210226Z 18013KT 11/M01 A301 RMK A01 T01051009  RH  045%=      5-min Rain = 0
KSW1 210227Z 18011KT 11/M01 A301 RMK A01 T01051009  RH  045%=      5-min Rain = 0
KSW1 210228Z 18013KT 10/M01 A301 RMK A01 T01041009  RH  045%=      5-min Rain = 0
KSW1 210229Z 18012KT 10/M01 A301 RMK A01 T01041009  RH  045%=      5-min Rain = 0
KSW1 210230Z 18013KT 10/M01 A301 RMK A01 T01031010  RH  045%=      5-min Rain = 0
KSW1 210231Z 18013KT 10/M01 A301 RMK A01 T01041010  RH  045%=      5-min Rain = 0
KSW1 210232Z 18013KT 11/M01 A301 RMK A01 T01051010  RH  045%=      5-min Rain = 0
KSW1 210233Z 18012KT 10/M01 A301 RMK A01 T01041010  RH  045%=      5-min Rain = 0
KSW1 210234Z 18012KT 10/M01 A301 RMK A01 T01041009  RH  045%=      5-min Rain = 0
KSW1 210235Z 18013KT 10/M01 A301 RMK A01 T01031010  RH  045%=      5-min Rain = 0
KSW1 210236Z 18014KT 10/M01 A301 RMK A01 T01031010  RH  045%=      5-min Rain = 0
KSW1 210237Z 18014KT 10/M01 A3009 RMK A01 T01041010  RH  045%=      5-min Rain = 0
KSW1 210238Z 18013KT 10/M01 A3009 RMK A01 T01041010  RH  045%=      5-min Rain = 0
KSW1 210239Z 18012KT 10/M01 A3009 RMK A01 T01041010  RH  045%=      5-min Rain = 0
KSW1 210240Z 18013KT 10/M01 A3009 RMK A01 T01031010  RH  045%=      5-min Rain = 0
KSW1 210241Z 18014KT 10/M01 A3009 RMK A01 T01021011  RH  045%=      5-min Rain = 0
KSW1 210242Z 18012KT 10/M01 A3009 RMK A01 T01031011  RH  045%=      5-min Rain = 0
KSW1 210243Z 18013KT 10/M01 A3009 RMK A01 T01021010  RH  045%=      5-min Rain = 0
KSW1 210244Z 18013KT 10/M01 A3009 RMK A01 T01011010  RH  046%=      5-min Rain = 0
KSW1 210245Z 18013KT 10/M01 A3009 RMK A01 T01011011  RH  046%=      5-min Rain = 0
KSW1 210246Z 18012KT 10/M01 A3009 RMK A01 T01011010  RH  046%=      5-min Rain = 0
KSW1 210247Z 18013KT 10/M01 A3009 RMK A01 T01011010  RH  046%=      5-min Rain = 0
KSW1 210248Z 18013KT 10/M01 A3009 RMK A01 T01011010  RH  046%=      5-min Rain = 0
KSW1 210249Z 18013KT 10/M01 A3009 RMK A01 T01011011  RH  046%=      5-min Rain = 0
KSW1 210250Z 18014KT 10/M01 A3009 RMK A01 T01011011  RH  046%=      5-min Rain = 0
KSW1 210251Z 18013KT 10/M01 A3009 RMK A01 T01021011  RH  045%=      5-min Rain = 0
KSW1 210252Z 18013KT 10/M01 A3009 RMK A01 T01021010  RH  046%=      5-min Rain = 0
KSW1 210253Z 18013KT 10/M01 A3009 RMK A01 T01011011  RH  046%=      5-min Rain = 0
KSW1 210254Z 18013KT 10/M01 A3009 RMK A01 T01011011  RH  046%=      5-min Rain = 0
KSW1 210255Z 18013KT 10/M01 A3009 RMK A01 T01001011  RH  046%=      5-min Rain = 0
KSW1 210256Z 18013KT 10/M01 A3009 RMK A01 T01011011  RH  046%=      5-min Rain = 0
KSW1 210257Z 18013KT 10/M01 A3009 RMK A01 T01011010  RH  046%=      5-min Rain = 0
KSW1 210258Z 18015KT 10/M01 A3009 RMK A01 T01001012  RH  046%=      5-min Rain = 0
KSW1 210259Z 18013KT 10/M01 A3009 RMK A01 T01011012  RH  045%=      5-min Rain = 0
KSW1 210300Z 18015KT 10/M01 A3009 RMK A01 T01021011  RH  045%=      5-min Rain = 0
KSW1 210301Z 18014KT 10/M01 A3009 RMK A01 T01011012  RH  045%=      5-min Rain = 0
KSW1 210302Z 18014KT 10/M01 A3008 RMK A01 T01021012  RH  045%=      5-min Rain = 0
KSW1 210303Z 18015KT 10/M01 A3008 RMK A01 T01021011  RH  045%=      5-min Rain = 0
KSW1 210304Z 18014KT 10/M01 A3008 RMK A01 T01021011  RH  045%=      5-min Rain = 0
KSW1 210305Z 18014KT 10/M01 A3008 RMK A01 T01021011  RH  045%=      5-min Rain = 0
KSW1 210306Z 18015KT 10/M01 A3008 RMK A01 T01021011  RH  045%=      5-min Rain = 0
KSW1 210307Z 18014KT 10/M01 A3008 RMK A01 T01021012  RH  045%=      5-min Rain = 0
KSW1 210308Z 18015KT 10/M01 A3008 RMK A01 T01021012  RH  045%=      5-min Rain = 0
KSW1 210309Z 18015KT 10/M01 A3008 RMK A01 T01021012  RH  045%=      5-min Rain = 0
KSW1 210310Z 18014KT 10/M01 A3008 RMK A01 T01021012  RH  045%=      5-min Rain = 0
KSW1 210311Z 18015KT 10/M01 A3008 RMK A01 T01021012  RH  045%=      5-min Rain = 0
KSW1 210312Z 18015KT 10/M01 A3008 RMK A01 T01021012  RH  045%=      5-min Rain = 0
KSW1 210313Z 18014KT 10/M01 A3008 RMK A01 T01021012  RH  045%=      5-min Rain = 0
KSW1 210314Z 18015KT 10/M01 A3007 RMK A01 T01021012  RH  045%=      5-min Rain = 0
KSW1 210315Z 18015KT 10/M01 A3007 RMK A01 T01011012  RH  045%=      5-min Rain = 0
KSW1 210316Z 18015KT 10/M01 A3007 RMK A01 T01011012  RH  045%=      5-min Rain = 0
KSW1 210317Z 18016KT 10/M01 A3007 RMK A01 T01011012  RH  045%=      5-min Rain = 0
KSW1 210318Z 18015KT 10/M01 A3007 RMK A01 T01011012  RH  045%=      5-min Rain = 0
KSW1 210319Z 18014KT 10/M01 A3007 RMK A01 T01021012  RH  045%=      5-min Rain = 0
KSW1 210320Z 18015KT 10/M01 A3007 RMK A01 T01021012  RH  045%=      5-min Rain = 0
KSW1 210321Z 18015KT 10/M01 A3007 RMK A01 T01021012  RH  045%=      5-min Rain = 0
KSW1 210322Z 18015KT 10/M01 A3007 RMK A01 T01021012  RH  045%=      5-min Rain = 0
KSW1 210323Z 18015KT 10/M01 A3007 RMK A01 T01011012  RH  045%=      5-min Rain = 0
KSW1 210324Z 18016KT 10/M01 A3007 RMK A01 T01011013  RH  045%=      5-min Rain = 0
KSW1 210325Z 18016KT 10/M01 A3007 RMK A01 T01021013  RH  045%=      5-min Rain = 0
KSW1 210326Z 18015KT 10/M01 A3007 RMK A01 T01021013  RH  045%=      5-min Rain = 0
KSW1 210327Z 18014KT 10/M01 A3007 RMK A01 T01021012  RH  045%=      5-min Rain = 0
KSW1 210328Z 18015KT 10/M01 A3007 RMK A01 T01021012  RH  045%=      5-min Rain = 0
KSW1 210329Z 18015KT 10/M01 A3007 RMK A01 T01011012  RH  045%=      5-min Rain = 0
KSW1 210330Z 18015KT 10/M01 A3007 RMK A01 T01011013  RH  045%=      5-min Rain = 0
KSW1 210331Z 18015KT 10/M01 A3007 RMK A01 T01021012  RH  045%=      5-min Rain = 0
KSW1 210332Z 18016KT 10/M01 A3007 RMK A01 T01021013  RH  045%=      5-min Rain = 0
KSW1 210333Z 18013KT 10/M01 A3007 RMK A01 T01021012  RH  045%=      5-min Rain = 0
KSW1 210334Z 18014KT 10/M01 A3007 RMK A01 T01011012  RH  045%=      5-min Rain = 0
KSW1 210335Z 18013KT 10/M01 A3007 RMK A01 T01001012  RH  046%=      5-min Rain = 0
KSW1 210336Z 18014KT 10/M01 A3007 RMK A01 T00991012  RH  046%=      5-min Rain = 0
KSW1 210337Z 18014KT 10/M01 A3007 RMK A01 T00991012  RH  046%=      5-min Rain = 0
KSW1 210338Z 18013KT 10/M01 A3007 RMK A01 T01001012  RH  046%=      5-min Rain = 0
KSW1 210339Z 18015KT 10/M01 A3007 RMK A01 T01001012  RH  046%=      5-min Rain = 0
KSW1 210340Z 18014KT 10/M01 A3007 RMK A01 T00991012  RH  046%=      5-min Rain = 0
KSW1 210341Z 18014KT 10/M01 A3007 RMK A01 T00991012  RH  046%=      5-min Rain = 0
KSW1 210342Z 18014KT 10/M01 A3007 RMK A01 T00981012  RH  046%=      5-min Rain = 0
KSW1 210343Z 18014KT 10/M01 A3007 RMK A01 T00981012  RH  046%=      5-min Rain = 0
KSW1 210344Z 18014KT 10/M01 A3007 RMK A01 T00981012  RH  047%=      5-min Rain = 0
KSW1 210345Z 18014KT 10/M01 A3007 RMK A01 T00971011  RH  047%=      5-min Rain = 0
KSW1 210346Z 18014KT 10/M01 A3007 RMK A01 T00981011  RH  047%=      5-min Rain = 0
KSW1 210347Z 18014KT 10/M01 A3007 RMK A01 T00971012  RH  047%=      5-min Rain = 0
KSW1 210348Z 18015KT 10/M01 A3007 RMK A01 T00971011  RH  047%=      5-min Rain = 0
KSW1 210349Z 18015KT 10/M01 A3007 RMK A01 T00971012  RH  047%=      5-min Rain = 0
KSW1 210350Z 18013KT 10/M01 A3007 RMK A01 T00981011  RH  047%=      5-min Rain = 0
KSW1 210351Z 18015KT 10/M01 A3007 RMK A01 T00981011  RH  047%=      5-min Rain = 0
KSW1 210352Z 18012KT 10/M01 A3007 RMK A01 T00981011  RH  047%=      5-min Rain = 0
KSW1 210353Z 18015KT 10/M01 A3007 RMK A01 T00971011  RH  047%=      5-min Rain = 0
KSW1 210354Z 18013KT 10/M01 A3006 RMK A01 T00971011  RH  047%=      5-min Rain = 0
KSW1 210355Z 18014KT 10/M01 A3006 RMK A01 T00961011  RH  047%=      5-min Rain = 0
KSW1 210356Z 18015KT 10/M01 A3006 RMK A01 T00971011  RH  047%=      5-min Rain = 0
KSW1 210357Z 18015KT 10/M01 A3006 RMK A01 T00961011  RH  047%=      5-min Rain = 0
KSW1 210358Z 18016KT 10/M01 A3006 RMK A01 T00971011  RH  047%=      5-min Rain = 0
KSW1 210359Z 18015KT 10/M01 A3006 RMK A01 T00971012  RH  047%=      5-min Rain = 0
KSW1 210400Z 18015KT 10/M01 A3006 RMK A01 T00971011  RH  047%=      5-min Rain = 0
KSW1 210401Z 18015KT 10/M01 A3006 RMK A01 T00961011  RH  047%=      5-min Rain = 0
KSW1 210402Z 18016KT 10/M01 A3006 RMK A01 T00961011  RH  047%=      5-min Rain = 0
KSW1 210403Z 18017KT 10/M01 A3006 RMK A01 T00961011  RH  047%=      5-min Rain = 0
KSW1 210404Z 18016KT 10/M01 A3006 RMK A01 T00961011  RH  047%=      5-min Rain = 0
KSW1 210405Z 18015KT 10/M01 A3006 RMK A01 T00961011  RH  047%=      5-min Rain = 0
KSW1 210406Z 18015KT 10/M01 A3006 RMK A01 T00961011  RH  047%=      5-min Rain = 0
KSW1 210407Z 18015KT 10/M01 A3006 RMK A01 T00951011  RH  047%=      5-min Rain = 0
KSW1 210408Z 18017KT 10/M01 A3006 RMK A01 T00951011  RH  047%=      5-min Rain = 0
KSW1 210409Z 18017KT 10/M01 A3006 RMK A01 T00951012  RH  047%=      5-min Rain = 0
KSW1 210410Z 18016KT 10/M01 A3006 RMK A01 T00951011  RH  047%=      5-min Rain = 0
KSW1 210411Z 18016KT 10/M01 A3006 RMK A01 T00951011  RH  047%=      5-min Rain = 0
KSW1 210412Z 18015KT 10/M01 A3006 RMK A01 T00951011  RH  048%=      5-min Rain = 0
KSW1 210413Z 18015KT 09/M01 A3006 RMK A01 T00941011  RH  048%=      5-min Rain = 0
KSW1 210414Z 18015KT 09/M01 A3006 RMK A01 T00941011  RH  048%=      5-min Rain = 0
KSW1 210415Z 18015KT 09/M01 A3006 RMK A01 T00931011  RH  048%=      5-min Rain = 0
KSW1 210416Z 18016KT 09/M01 A3006 RMK A01 T00931011  RH  048%=      5-min Rain = 0
KSW1 210417Z 18016KT 09/M01 A3006 RMK A01 T00931011  RH  048%=      5-min Rain = 0
KSW1 210418Z 18016KT 09/M01 A3006 RMK A01 T00931011  RH  048%=      5-min Rain = 0
KSW1 210419Z 18016KT 09/M01 A3006 RMK A01 T00941011  RH  048%=      5-min Rain = 0
KSW1 210420Z 18015KT 09/M01 A3006 RMK A01 T00941011  RH  048%=      5-min Rain = 0
KSW1 210421Z 18017KT 09/M01 A3006 RMK A01 T00931011  RH  048%=      5-min Rain = 0
KSW1 210422Z 18017KT 09/M01 A3006 RMK A01 T00931011  RH  048%=      5-min Rain = 0
KSW1 210423Z 18016KT 09/M01 A3006 RMK A01 T00941011  RH  048%=      5-min Rain = 0
KSW1 210424Z 18016KT 09/M01 A3006 RMK A01 T00931011  RH  048%=      5-min Rain = 0
KSW1 210425Z 18017KT 09/M01 A3006 RMK A01 T00931011  RH  048%=      5-min Rain = 0
KSW1 210426Z 17015KT 09/M01 A3006 RMK A01 T00931011  RH  048%=      5-min Rain = 0
KSW1 210427Z 18014KT 09/M01 A3006 RMK A01 T00921011  RH  049%=      5-min Rain = 0
KSW1 210428Z 18016KT 09/M01 A3006 RMK A01 T00921011  RH  049%=      5-min Rain = 0
KSW1 210429Z 18014KT 09/M01 A3006 RMK A01 T00911011  RH  049%=      5-min Rain = 0
KSW1 210430Z 18015KT 09/M01 A3006 RMK A01 T00921010  RH  049%=      5-min Rain = 0
KSW1 210431Z 18014KT 09/M01 A3006 RMK A01 T00911011  RH  049%=      5-min Rain = 0
KSW1 210432Z 18014KT 09/M01 A3006 RMK A01 T00901010  RH  049%=      5-min Rain = 0
KSW1 210433Z 18015KT 09/M01 A3006 RMK A01 T00901010  RH  050%=      5-min Rain = 0
KSW1 210434Z 18014KT 09/M01 A3006 RMK A01 T00901010  RH  050%=      5-min Rain = 0
KSW1 210435Z 18014KT 09/M01 A3006 RMK A01 T00891011  RH  050%=      5-min Rain = 0
KSW1 210436Z 18015KT 09/M01 A3006 RMK A01 T00891010  RH  050%=      5-min Rain = 0
KSW1 210437Z 18015KT 09/M01 A3006 RMK A01 T00891011  RH  050%=      5-min Rain = 0
KSW1 210438Z 18016KT 09/M01 A3006 RMK A01 T00891011  RH  049%=      5-min Rain = 0
KSW1 210439Z 18012KT 09/M01 A3006 RMK A01 T00891011  RH  049%=      5-min Rain = 0
KSW1 210440Z 18015KT 09/M01 A3006 RMK A01 T00891011  RH  050%=      5-min Rain = 0
KSW1 210441Z 18016KT 09/M01 A3006 RMK A01 T00891011  RH  050%=      5-min Rain = 0
KSW1 210442Z 17014KT 09/M01 A3006 RMK A01 T00891011  RH  050%=      5-min Rain = 0
KSW1 210443Z 17013KT 09/M01 A3006 RMK A01 T00891010  RH  050%=      5-min Rain = 0
KSW1 210444Z 17014KT 09/M01 A3006 RMK A01 T00881010  RH  050%=      5-min Rain = 0
KSW1 210445Z 18015G20KT 09/M01 A3005 RMK A01 T00871011  RH  050%=      5-min Rain = 0
KSW1 210446Z 17015KT 09/M01 A3005 RMK A01 T00881011  RH  050%=      5-min Rain = 0
KSW1 210447Z 17014KT 09/M01 A3005 RMK A01 T00881011  RH  050%=      5-min Rain = 0
KSW1 210448Z 18016KT 09/M01 A3005 RMK A01 T00881011  RH  050%=      5-min Rain = 0
KSW1 210449Z 18013KT 09/M01 A3005 RMK A01 T00881011  RH  050%=      5-min Rain = 0
KSW1 210450Z 17013KT 09/M01 A3005 RMK A01 T00871010  RH  050%=      5-min Rain = 0
KSW1 210451Z 17015KT 09/M01 A3005 RMK A01 T00871010  RH  051%=      5-min Rain = 0
KSW1 210452Z 18016KT 09/M01 A3005 RMK A01 T00861011  RH  050%=      5-min Rain = 0
KSW1 210453Z 17015KT 09/M01 A3005 RMK A01 T00871011  RH  050%=      5-min Rain = 0
KSW1 210454Z 17014KT 09/M01 A3005 RMK A01 T00871011  RH  050%=      5-min Rain = 0
KSW1 210455Z 17016KT 09/M01 A3005 RMK A01 T00861011  RH  050%=      5-min Rain = 0
KSW1 210456Z 17015KT 09/M01 A3005 RMK A01 T00871011  RH  050%=      5-min Rain = 0
KSW1 210457Z 17015KT 09/M01 A3005 RMK A01 T00871011  RH  050%=      5-min Rain = 0
KSW1 210458Z 17016KT 09/M01 A3005 RMK A01 T00871011  RH  050%=      5-min Rain = 0
KSW1 210459Z 17015KT 09/M01 A3005 RMK A01 T00871011  RH  050%=      5-min Rain = 0
KSW1 210500Z 17016KT 09/M01 A3005 RMK A01 T00861011  RH  051%=      5-min Rain = 0
KSW1 210501Z 17015KT 09/M01 A3005 RMK A01 T00861011  RH  050%=      5-min Rain = 0
KSW1 210502Z 17015KT 09/M01 A3005 RMK A01 T00861011  RH  050%=      5-min Rain = 0
KSW1 210503Z 17016KT 09/M01 A3005 RMK A01 T00861011  RH  051%=      5-min Rain = 0
KSW1 210504Z 17017KT 09/M01 A3005 RMK A01 T00861011  RH  051%=      5-min Rain = 0
KSW1 210505Z 17017KT 09/M01 A3005 RMK A01 T00861011  RH  050%=      5-min Rain = 0
KSW1 210506Z 17016KT 09/M01 A3005 RMK A01 T00861011  RH  050%=      5-min Rain = 0
KSW1 210507Z 17016KT 09/M01 A3005 RMK A01 T00861011  RH  050%=      5-min Rain = 0
KSW1 210508Z 18015KT 09/M01 A3005 RMK A01 T00871011  RH  050%=      5-min Rain = 0
KSW1 210509Z 17016KT 09/M01 A3005 RMK A01 T00861011  RH  050%=      5-min Rain = 0
KSW1 210510Z 17015KT 09/M01 A3005 RMK A01 T00861011  RH  051%=      5-min Rain = 0
KSW1 210511Z 17015G20KT 09/M01 A3005 RMK A01 T00851011  RH  051%=      5-min Rain = 0
KSW1 210512Z 17015KT 09/M01 A3005 RMK A01 T00861011  RH  051%=      5-min Rain = 0
KSW1 210513Z 18016KT 09/M01 A3005 RMK A01 T00851011  RH  051%=      5-min Rain = 0
KSW1 210514Z 18016G21KT 09/M01 A3005 RMK A01 T00851011  RH  051%=      5-min Rain = 0
KSW1 210515Z 17014KT 09/M01 A3005 RMK A01 T00851011  RH  051%=      5-min Rain = 0
KSW1 210516Z 17016KT 08/M01 A3005 RMK A01 T00841011  RH  051%=      5-min Rain = 0
KSW1 210517Z 17015KT 08/M01 A3005 RMK A01 T00841011  RH  051%=      5-min Rain = 0
KSW1 210518Z 18016KT 08/M01 A3005 RMK A01 T00841011  RH  051%=      5-min Rain = 0
KSW1 210519Z 17017KT 08/M01 A3005 RMK A01 T00841011  RH  051%=      5-min Rain = 0
KSW1 210520Z 17015KT 08/M01 A3006 RMK A01 T00841012  RH  051%=      5-min Rain = 0
KSW1 210521Z 18014KT 08/M01 A3006 RMK A01 T00841011  RH  051%=      5-min Rain = 0
KSW1 210522Z 18017KT 08/M01 A3006 RMK A01 T00831011  RH  051%=      5-min Rain = 0
KSW1 210523Z 17015KT 08/M01 A3006 RMK A01 T00831012  RH  051%=      5-min Rain = 0
KSW1 210524Z 17016KT 08/M01 A3005 RMK A01 T00831012  RH  051%=      5-min Rain = 0
KSW1 210525Z 18015KT 08/M01 A3006 RMK A01 T00831011  RH  051%=      5-min Rain = 0
KSW1 210526Z 18016KT 08/M01 A3005 RMK A01 T00831011  RH  051%=      5-min Rain = 0
KSW1 210527Z 18015KT 08/M01 A3006 RMK A01 T00831012  RH  051%=      5-min Rain = 0
KSW1 210528Z 18015KT 08/M01 A3006 RMK A01 T00831012  RH  051%=      5-min Rain = 0
KSW1 210529Z 18014KT 08/M01 A3006 RMK A01 T00821012  RH  052%=      5-min Rain = 0
KSW1 210530Z 18014G19KT 08/M01 A3006 RMK A01 T00821011  RH  052%=      5-min Rain = 0
KSW1 210531Z 18014KT 08/M01 A3006 RMK A01 T00821012  RH  052%=      5-min Rain = 0
KSW1 210532Z 18012KT 08/M01 A3006 RMK A01 T00821012  RH  052%=      5-min Rain = 0
KSW1 210533Z 18014KT 08/M01 A3006 RMK A01 T00811011  RH  052%=      5-min Rain = 0
KSW1 210534Z 18013KT 08/M01 A3006 RMK A01 T00811011  RH  052%=      5-min Rain = 0
KSW1 210535Z 18013KT 08/M01 A3006 RMK A01 T00811011  RH  052%=      5-min Rain = 0
KSW1 210536Z 18013G18KT 08/M01 A3006 RMK A01 T00801011  RH  052%=      5-min Rain = 0
KSW1 210537Z 18013KT 08/M01 A3006 RMK A01 T00801012  RH  052%=      5-min Rain = 0
KSW1 210538Z 18013KT 08/M01 A3006 RMK A01 T00801012  RH  052%=      5-min Rain = 0
KSW1 210539Z 18013KT 08/M01 A3006 RMK A01 T00801011  RH  053%=      5-min Rain = 0
KSW1 210540Z 18012KT 08/M01 A3006 RMK A01 T00801011  RH  052%=      5-min Rain = 0
KSW1 210541Z 18014KT 08/M01 A3006 RMK A01 T00791011  RH  053%=      5-min Rain = 0
KSW1 210542Z 18012KT 08/M01 A3006 RMK A01 T00791012  RH  053%=      5-min Rain = 0
KSW1 210543Z 18012KT 08/M01 A3006 RMK A01 T00791011  RH  053%=      5-min Rain = 0
KSW1 210544Z 18012KT 08/M01 A3007 RMK A01 T00791011  RH  053%=      5-min Rain = 0
KSW1 210545Z 18013KT 08/M01 A3007 RMK A01 T00791011  RH  053%=      5-min Rain = 0
KSW1 210546Z 18013KT 08/M01 A3007 RMK A01 T00791011  RH  053%=      5-min Rain = 0
KSW1 210547Z 18014KT 08/M01 A3006 RMK A01 T00791012  RH  053%=      5-min Rain = 0
KSW1 210548Z 18014KT 08/M01 A3006 RMK A01 T00801012  RH  052%=      5-min Rain = 0
KSW1 210549Z 19013KT 08/M01 A3006 RMK A01 T00801012  RH  052%=      5-min Rain = 0
KSW1 210550Z 18014KT 08/M01 A3006 RMK A01 T00801012  RH  052%=      5-min Rain = 0
KSW1 210551Z 18013KT 08/M01 A3006 RMK A01 T00801012  RH  052%=      5-min Rain = 0
KSW1 210552Z 18012KT 08/M01 A3006 RMK A01 T00801011  RH  053%=      5-min Rain = 0
KSW1 210553Z 18013KT 08/M01 A3006 RMK A01 T00791012  RH  053%=      5-min Rain = 0
KSW1 210554Z 18012KT 08/M01 A3006 RMK A01 T00791011  RH  053%=      5-min Rain = 0
KSW1 210555Z 18014KT 08/M01 A3006 RMK A01 T00781011  RH  053%=      5-min Rain = 0
KSW1 210556Z 18013G18KT 08/M01 A3006 RMK A01 T00781012  RH  053%=      5-min Rain = 0
KSW1 210557Z 18013KT 08/M01 A3006 RMK A01 T00781012  RH  053%=      5-min Rain = 0
KSW1 210558Z 18013KT 08/M01 A3006 RMK A01 T00791012  RH  053%=      5-min Rain = 0
KSW1 210559Z 18012KT 08/M01 A3006 RMK A01 T00791012  RH  053%=      5-min Rain = 0

Page generated in 0.0767 seconds.